GEFSMA_prec_meanprecacc_006.txt.gz
Total_Precipitation_Accumulation
0.06 0.05 0.04 0.03 0.01 0.00 0.00 0.00 0.00 0.00 0.00 0.00 0.00 0.00 0.00 0.00 0.00 0.00 0.00 0.00 0.00 0.01 0.03 0.06 0.05 0.02 0.01 0.00 0.00 0.00 0.00 0.00 0.00 0.00 0.00 0.00 0.00 0.00 0.00 0.00 0.00 0.00 0.00
0.02 0.02 0.02 0.01 0.01 0.00 0.00 0.00 0.00 0.00 0.00 0.00 0.00 0.00 0.00 0.00 0.00 0.01 0.01 0.00 0.00 0.00 0.01 0.05 0.06 0.04 0.02 0.01 0.01 0.00 0.00 0.00 0.00 0.00 0.00 0.00 0.00 0.00 0.00 0.00 0.00 0.00 0.00
0.01 0.01 0.01 0.00 0.00 0.00 0.00 0.00 0.00 0.00 0.00 0.00 0.00 0.01 0.01 0.01 0.01 0.01 0.02 0.01 0.01 0.00 0.00 0.03 0.06 0.09 0.09 0.05 0.03 0.01 0.01 0.00 0.00 0.00 0.00 0.00 0.00 0.00 0.00 0.00 0.00 0.00 0.00
0.00 0.00 0.00 0.00 0.00 0.00 0.01 0.01 0.01 0.00 0.00 0.01 0.01 0.02 0.04 0.04 0.03 0.03 0.05 0.04 0.02 0.01 0.00 0.01 0.05 0.16 0.19 0.18 0.15 0.10 0.07 0.04 0.01 0.00 0.00 0.00 0.00 0.00 0.00 0.00 0.00 0.00 0.00
0.00 0.00 0.00 0.00 0.00 0.01 0.01 0.02 0.02 0.01 0.01 0.01 0.01 0.01 0.02 0.03 0.04 0.05 0.07 0.07 0.06 0.03 0.01 0.01 0.02 0.08 0.18 0.27 0.33 0.33 0.27 0.18 0.07 0.01 0.00 0.00 0.00 0.00 0.00 0.00 0.00 0.01 0.00
0.00 0.00 0.00 0.00 0.00 0.00 0.00 0.01 0.01 0.01 0.01 0.01 0.01 0.01 0.00 0.01 0.02 0.03 0.05 0.08 0.09 0.07 0.04 0.03 0.03 0.02 0.05 0.12 0.21 0.26 0.25 0.20 0.12 0.04 0.01 0.00 0.00 0.00 0.00 0.00 0.00 0.01 0.01
0.00 0.00 0.00 0.00 0.00 0.00 0.01 0.01 0.02 0.02 0.01 0.01 0.00 0.00 0.00 0.00 0.00 0.02 0.05 0.09 0.11 0.14 0.16 0.16 0.14 0.10 0.06 0.05 0.08 0.10 0.11 0.10 0.07 0.04 0.02 0.00 0.00 0.00 0.00 0.00 0.00 0.00 0.01
0.00 0.00 0.00 0.00 0.00 0.00 0.00 0.00 0.01 0.02 0.02 0.01 0.01 0.01 0.00 0.00 0.00 0.01 0.04 0.07 0.13 0.21 0.29 0.30 0.28 0.22 0.14 0.10 0.07 0.06 0.06 0.06 0.04 0.02 0.01 0.00 0.00 0.00 0.00 0.00 0.00 0.00 0.00
0.00 0.00 0.00 0.00 0.00 0.00 0.00 0.00 0.00 0.00 0.01 0.01 0.01 0.01 0.01 0.00 0.00 0.00 0.01 0.04 0.06 0.09 0.14 0.20 0.22 0.21 0.18 0.15 0.11 0.08 0.04 0.03 0.02 0.01 0.00 0.00 0.00 0.00 0.00 0.00 0.00 0.00 0.00
0.00 0.00 0.00 0.00 0.00 0.01 0.01 0.01 0.00 0.00 0.00 0.00 0.01 0.01 0.00 0.00 0.00 0.00 0.00 0.01 0.01 0.01 0.02 0.05 0.09 0.11 0.13 0.13 0.10 0.07 0.04 0.02 0.01 0.00 0.00 0.00 0.00 0.00 0.00 0.01 0.01 0.00 0.00
0.00 0.00 0.00 0.00 0.00 0.00 0.01 0.01 0.00 0.00 0.00 0.00 0.00 0.00 0.00 0.00 0.00 0.00 0.00 0.00 0.00 0.00 0.00 0.01 0.02 0.03 0.04 0.05 0.04 0.03 0.02 0.00 0.00 0.00 0.00 0.00 0.00 0.00 0.00 0.00 0.00 0.00 0.00
0.00 0.00 0.00 0.00 0.00 0.01 0.01 0.00 0.00 0.00 0.00 0.00 0.00 0.00 0.00 0.00 0.00 0.00 0.00 0.00 0.00 0.00 0.00 0.00 0.00 0.00 0.01 0.01 0.01 0.00 0.00 0.00 0.00 0.00 0.00 0.00 0.00 0.00 0.00 0.00 0.00 0.00 0.00
0.00 0.00 0.00 0.01 0.01 0.01 0.01 0.01 0.01 0.00 0.00 0.00 0.00 0.00 0.00 0.00 0.00 0.00 0.00 0.00 0.00 0.00 0.00 0.00 0.00 0.00 0.00 0.00 0.00 0.00 0.00 0.00 0.00 0.00 0.00 0.00 0.00 0.00 0.00 0.00 0.00 0.00 0.00
0.00 0.00 0.00 0.01 0.01 0.01 0.01 0.01 0.01 0.01 0.00 0.00 0.00 0.00 0.00 0.00 0.00 0.00 0.00 0.00 0.00 0.00 0.00 0.00 0.00 0.00 0.00 0.00 0.00 0.00 0.00 0.00 0.00 0.00 0.00 0.00 0.00 0.00 0.00 0.00 0.00 0.00 0.00
0.00 0.00 0.01 0.02 0.02 0.03 0.02 0.02 0.01 0.01 0.00 0.00 0.00 0.00 0.00 0.00 0.00 0.00 0.00 0.00 0.00 0.00 0.00 0.00 0.00 0.00 0.00 0.00 0.00 0.00 0.00 0.00 0.00 0.00 0.00 0.00 0.00 0.00 0.00 0.00 0.00 0.00 0.00
0.01 0.01 0.01 0.03 0.05 0.06 0.06 0.04 0.02 0.01 0.00 0.00 0.00 0.00 0.00 0.00 0.00 0.00 0.00 0.00 0.00 0.00 0.00 0.00 0.00 0.00 0.00 0.00 0.00 0.00 0.00 0.00 0.00 0.00 0.00 0.00 0.00 0.00 0.00 0.00 0.00 0.00 0.00
0.01 0.02 0.02 0.03 0.05 0.07 0.07 0.06 0.03 0.02 0.00 0.00 0.00 0.00 0.00 0.00 0.00 0.00 0.00 0.00 0.00 0.00 0.00 0.00 0.00 0.00 0.00 0.00 0.00 0.00 0.00 0.00 0.00 0.00 0.00 0.00 0.00 0.00 0.00 0.00 0.00 0.00 0.00
0.04 0.04 0.05 0.06 0.06 0.05 0.04 0.04 0.03 0.02 0.02 0.02 0.02 0.02 0.02 0.02 0.01 0.00 0.00 0.00 0.00 0.00 0.00 0.00 0.00 0.00 0.00 0.00 0.00 0.00 0.00 0.00 0.00 0.00 0.00 0.00 0.00 0.00 0.00 0.00 0.00 0.00 0.00
0.08 0.11 0.13 0.14 0.12 0.07 0.04 0.03 0.02 0.03 0.04 0.04 0.04 0.04 0.04 0.04 0.02 0.01 0.00 0.00 0.00 0.01 0.01 0.01 0.01 0.01 0.00 0.00 0.01 0.00 0.00 0.00 0.00 0.00 0.01 0.01 0.00 0.00 0.00 0.00 0.00 0.00 0.00
0.17 0.22 0.26 0.30 0.28 0.20 0.12 0.07 0.05 0.05 0.06 0.06 0.06 0.06 0.06 0.04 0.02 0.01 0.00 0.00 0.00 0.00 0.01 0.02 0.02 0.02 0.01 0.01 0.03 0.03 0.02 0.01 0.01 0.00 0.00 0.00 0.00 0.00 0.00 0.00 0.00 0.00 0.00
0.23 0.29 0.32 0.31 0.26 0.22 0.18 0.14 0.11 0.11 0.10 0.09 0.08 0.06 0.05 0.04 0.03 0.01 0.01 0.00 0.00 0.00 0.00 0.01 0.01 0.02 0.02 0.02 0.04 0.04 0.06 0.05 0.06 0.04 0.02 0.00 0.00 0.00 0.00 0.00 0.00 0.00 0.00
0.16 0.25 0.30 0.26 0.18 0.14 0.13 0.11 0.10 0.09 0.08 0.07 0.06 0.04 0.03 0.03 0.02 0.01 0.01 0.01 0.01 0.01 0.01 0.01 0.01 0.01 0.01 0.01 0.02 0.03 0.04 0.05 0.06 0.06 0.04 0.02 0.00 0.00 0.00 0.00 0.00 0.00 0.00
0.10 0.13 0.15 0.13 0.12 0.11 0.10 0.06 0.03 0.02 0.02 0.02 0.01 0.01 0.01 0.01 0.00 0.00 0.01 0.01 0.01 0.01 0.01 0.01 0.02 0.02 0.01 0.01 0.01 0.01 0.02 0.02 0.04 0.03 0.02 0.01 0.00 0.00 0.00 0.00 0.00 0.00 0.00
0.08 0.08 0.07 0.05 0.04 0.05 0.05 0.02 0.01 0.00 0.00 0.00 0.00 0.00 0.00 0.00 0.00 0.00 0.00 0.00 0.00 0.00 0.00 0.00 0.00 0.01 0.01 0.01 0.01 0.00 0.00 0.00 0.01 0.01 0.00 0.00 0.00 0.00 0.00 0.00 0.00 0.00 0.00
0.06 0.08 0.06 0.03 0.01 0.02 0.03 0.01 0.00 0.00 0.00 0.00 0.00 0.00 0.00 0.00 0.00 0.00 0.00 0.00 0.00 0.00 0.00 0.00 0.00 0.00 0.00 0.00 0.00 0.00 0.00 0.00 0.01 0.00 0.00 0.00 0.00 0.00 0.00 0.00 0.00 0.00 0.00
0.02 0.04 0.04 0.02 0.00 0.00 0.01 0.01 0.00 0.00 0.00 0.00 0.00 0.00 0.00 0.00 0.00 0.00 0.00 0.00 0.00 0.00 0.00 0.00 0.00 0.00 0.00 0.00 0.00 0.00 0.00 0.00 0.00 0.00 0.00 0.00 0.00 0.00 0.00 0.00 0.00 0.00 0.00

GEFSMA_prec_meanprecacc_012.txt.gz
Total_Precipitation_Accumulation
0.11 0.11 0.11 0.12 0.12 0.13 0.12 0.12 0.09 0.06 0.04 0.02 0.01 0.00 0.00 0.00 0.00 0.00 0.00 0.00 0.00 0.01 0.05 0.13 0.17 0.16 0.12 0.07 0.01 0.00 0.00 0.00 0.00 0.00 0.00 0.00 0.00 0.00 0.00 0.00 0.00 0.00 0.00
0.03 0.03 0.03 0.02 0.02 0.02 0.02 0.02 0.02 0.02 0.01 0.01 0.00 0.00 0.00 0.00 0.00 0.01 0.01 0.00 0.00 0.01 0.03 0.09 0.14 0.16 0.17 0.13 0.06 0.01 0.00 0.00 0.00 0.00 0.00 0.00 0.00 0.00 0.00 0.00 0.00 0.00 0.00
0.01 0.01 0.01 0.01 0.00 0.00 0.00 0.00 0.00 0.00 0.00 0.01 0.01 0.01 0.01 0.01 0.01 0.01 0.02 0.02 0.01 0.01 0.02 0.07 0.14 0.19 0.24 0.21 0.13 0.05 0.02 0.01 0.00 0.00 0.00 0.00 0.00 0.00 0.00 0.00 0.00 0.00 0.00
0.00 0.00 0.00 0.00 0.00 0.00 0.01 0.01 0.01 0.00 0.00 0.01 0.01 0.02 0.04 0.04 0.03 0.03 0.05 0.04 0.03 0.02 0.01 0.04 0.13 0.25 0.33 0.35 0.30 0.21 0.13 0.08 0.02 0.01 0.00 0.00 0.00 0.00 0.00 0.00 0.00 0.00 0.00
0.00 0.00 0.00 0.00 0.00 0.01 0.01 0.02 0.02 0.01 0.01 0.01 0.01 0.01 0.02 0.03 0.04 0.06 0.08 0.09 0.07 0.04 0.03 0.03 0.07 0.18 0.30 0.42 0.52 0.52 0.47 0.35 0.20 0.08 0.02 0.00 0.00 0.00 0.00 0.00 0.00 0.01 0.00
0.00 0.00 0.00 0.00 0.00 0.00 0.00 0.01 0.01 0.01 0.02 0.01 0.01 0.01 0.00 0.01 0.02 0.04 0.07 0.11 0.12 0.11 0.07 0.07 0.07 0.07 0.12 0.21 0.35 0.49 0.51 0.47 0.38 0.23 0.11 0.03 0.01 0.00 0.00 0.00 0.00 0.01 0.01
0.00 0.00 0.00 0.00 0.00 0.00 0.01 0.01 0.02 0.02 0.01 0.01 0.01 0.00 0.00 0.00 0.00 0.02 0.06 0.10 0.14 0.18 0.21 0.20 0.19 0.15 0.10 0.12 0.15 0.21 0.30 0.38 0.38 0.34 0.23 0.10 0.03 0.01 0.01 0.00 0.00 0.00 0.01
0.00 0.00 0.00 0.00 0.00 0.00 0.00 0.01 0.01 0.02 0.02 0.01 0.02 0.01 0.00 0.00 0.00 0.01 0.04 0.08 0.14 0.24 0.33 0.34 0.33 0.27 0.20 0.15 0.11 0.12 0.16 0.24 0.28 0.31 0.27 0.18 0.10 0.05 0.02 0.00 0.00 0.00 0.00
0.00 0.00 0.00 0.00 0.00 0.00 0.00 0.00 0.00 0.01 0.01 0.01 0.02 0.03 0.01 0.00 0.00 0.00 0.01 0.04 0.07 0.11 0.16 0.23 0.26 0.25 0.24 0.21 0.18 0.15 0.14 0.17 0.23 0.26 0.24 0.19 0.13 0.09 0.05 0.01 0.00 0.00 0.00
0.00 0.00 0.00 0.00 0.00 0.01 0.01 0.01 0.01 0.01 0.01 0.01 0.02 0.03 0.02 0.00 0.00 0.00 0.00 0.01 0.01 0.02 0.04 0.07 0.11 0.14 0.18 0.20 0.20 0.19 0.18 0.16 0.18 0.20 0.18 0.15 0.12 0.08 0.04 0.03 0.02 0.00 0.00
0.00 0.00 0.00 0.00 0.00 0.01 0.01 0.01 0.02 0.02 0.03 0.03 0.03 0.03 0.03 0.02 0.01 0.00 0.00 0.00 0.00 0.01 0.01 0.02 0.04 0.06 0.08 0.11 0.13 0.16 0.18 0.16 0.15 0.15 0.14 0.10 0.08 0.05 0.04 0.03 0.01 0.00 0.00
0.00 0.00 0.00 0.00 0.01 0.01 0.01 0.01 0.02 0.03 0.04 0.04 0.04 0.04 0.03 0.02 0.01 0.00 0.00 0.00 0.00 0.00 0.01 0.01 0.01 0.02 0.04 0.06 0.08 0.09 0.10 0.11 0.11 0.10 0.10 0.07 0.05 0.04 0.03 0.01 0.00 0.00 0.00
0.00 0.00 0.00 0.01 0.01 0.01 0.02 0.02 0.03 0.04 0.04 0.04 0.04 0.04 0.04 0.03 0.02 0.01 0.00 0.00 0.00 0.00 0.00 0.01 0.01 0.01 0.02 0.03 0.05 0.05 0.04 0.05 0.06 0.07 0.07 0.06 0.03 0.02 0.01 0.00 0.00 0.00 0.00
0.01 0.00 0.00 0.01 0.01 0.02 0.03 0.03 0.04 0.05 0.05 0.05 0.05 0.04 0.04 0.03 0.02 0.01 0.00 0.00 0.00 0.00 0.00 0.00 0.00 0.01 0.01 0.02 0.03 0.03 0.02 0.02 0.02 0.03 0.03 0.03 0.02 0.01 0.00 0.00 0.00 0.00 0.00
0.01 0.01 0.01 0.02 0.02 0.03 0.03 0.04 0.05 0.06 0.06 0.06 0.06 0.06 0.06 0.04 0.03 0.01 0.01 0.00 0.00 0.00 0.00 0.00 0.00 0.00 0.00 0.01 0.02 0.01 0.01 0.01 0.01 0.01 0.01 0.01 0.01 0.01 0.00 0.00 0.00 0.00 0.00
0.01 0.01 0.02 0.04 0.06 0.08 0.09 0.08 0.08 0.07 0.08 0.09 0.09 0.09 0.08 0.06 0.04 0.02 0.01 0.01 0.00 0.00 0.00 0.00 0.00 0.00 0.00 0.01 0.01 0.01 0.00 0.00 0.00 0.00 0.00 0.00 0.00 0.00 0.00 0.00 0.00 0.00 0.00
0.02 0.03 0.04 0.06 0.07 0.10 0.14 0.16 0.16 0.15 0.14 0.13 0.13 0.13 0.13 0.09 0.05 0.04 0.02 0.01 0.01 0.00 0.00 0.00 0.00 0.00 0.00 0.00 0.00 0.00 0.00 0.00 0.00 0.00 0.00 0.00 0.00 0.00 0.00 0.00 0.00 0.00 0.00
0.05 0.07 0.09 0.11 0.12 0.11 0.14 0.21 0.27 0.29 0.29 0.28 0.24 0.20 0.18 0.13 0.08 0.04 0.03 0.02 0.01 0.00 0.00 0.00 0.00 0.00 0.00 0.00 0.00 0.00 0.00 0.00 0.00 0.00 0.00 0.00 0.00 0.00 0.00 0.00 0.00 0.00 0.00
0.09 0.13 0.18 0.23 0.23 0.19 0.17 0.21 0.30 0.42 0.50 0.50 0.43 0.33 0.23 0.14 0.08 0.05 0.04 0.03 0.02 0.01 0.01 0.01 0.01 0.01 0.00 0.00 0.01 0.00 0.00 0.00 0.00 0.01 0.01 0.01 0.00 0.00 0.00 0.00 0.00 0.00 0.00
0.19 0.25 0.31 0.39 0.40 0.37 0.34 0.32 0.33 0.38 0.47 0.52 0.49 0.40 0.30 0.18 0.10 0.06 0.04 0.03 0.02 0.02 0.02 0.03 0.03 0.02 0.02 0.02 0.03 0.04 0.03 0.02 0.01 0.01 0.01 0.01 0.01 0.00 0.00 0.00 0.00 0.00 0.00
0.25 0.33 0.36 0.37 0.34 0.34 0.35 0.32 0.32 0.31 0.31 0.33 0.33 0.29 0.24 0.20 0.15 0.09 0.06 0.04 0.03 0.02 0.02 0.03 0.03 0.03 0.03 0.04 0.06 0.07 0.09 0.09 0.09 0.07 0.03 0.01 0.00 0.00 0.00 0.00 0.00 0.00 0.00
0.18 0.28 0.34 0.30 0.24 0.24 0.26 0.19 0.17 0.17 0.18 0.20 0.22 0.20 0.16 0.13 0.10 0.09 0.08 0.06 0.05 0.04 0.04 0.04 0.03 0.03 0.02 0.02 0.04 0.08 0.11 0.11 0.13 0.14 0.13 0.09 0.04 0.01 0.00 0.00 0.00 0.00 0.00
0.11 0.15 0.18 0.15 0.15 0.19 0.21 0.09 0.04 0.04 0.05 0.06 0.07 0.08 0.08 0.06 0.04 0.05 0.05 0.05 0.04 0.04 0.04 0.06 0.08 0.08 0.06 0.04 0.03 0.04 0.08 0.14 0.15 0.13 0.16 0.19 0.16 0.09 0.03 0.01 0.00 0.00 0.00
0.09 0.10 0.09 0.05 0.05 0.08 0.15 0.07 0.01 0.00 0.01 0.01 0.01 0.02 0.02 0.03 0.02 0.02 0.03 0.03 0.02 0.02 0.03 0.05 0.08 0.10 0.09 0.07 0.06 0.06 0.06 0.09 0.14 0.16 0.16 0.18 0.16 0.13 0.08 0.04 0.01 0.00 0.00
0.06 0.08 0.07 0.03 0.01 0.02 0.10 0.10 0.02 0.00 0.00 0.00 0.00 0.00 0.01 0.01 0.01 0.00 0.01 0.02 0.02 0.03 0.03 0.04 0.05 0.06 0.07 0.06 0.05 0.05 0.06 0.07 0.09 0.10 0.13 0.15 0.13 0.09 0.06 0.04 0.02 0.01 0.00
0.02 0.04 0.04 0.02 0.00 0.00 0.04 0.11 0.09 0.01 0.00 0.00 0.00 0.00 0.01 0.02 0.01 0.00 0.00 0.01 0.02 0.02 0.01 0.01 0.01 0.01 0.01 0.02 0.02 0.04 0.06 0.07 0.07 0.07 0.05 0.05 0.06 0.05 0.04 0.02 0.00 0.00 0.00

GEFSMA_prec_meanprecacc_018.txt.gz
Total_Precipitation_Accumulation
0.11 0.11 0.11 0.12 0.12 0.13 0.14 0.16 0.16 0.15 0.14 0.13 0.11 0.07 0.04 0.02 0.01 0.00 0.00 0.00 0.00 0.01 0.05 0.15 0.27 0.38 0.39 0.36 0.25 0.13 0.05 0.01 0.00 0.00 0.00 0.00 0.00 0.00 0.00 0.00 0.00 0.01 0.01
0.03 0.03 0.03 0.02 0.02 0.02 0.02 0.03 0.04 0.05 0.06 0.07 0.06 0.05 0.04 0.03 0.01 0.01 0.01 0.00 0.00 0.01 0.03 0.09 0.17 0.27 0.38 0.40 0.31 0.20 0.10 0.03 0.00 0.00 0.00 0.00 0.00 0.00 0.00 0.00 0.00 0.00 0.00
0.01 0.01 0.01 0.01 0.00 0.00 0.00 0.00 0.00 0.00 0.01 0.02 0.02 0.03 0.03 0.02 0.02 0.02 0.02 0.02 0.01 0.01 0.02 0.07 0.14 0.23 0.35 0.42 0.38 0.27 0.18 0.07 0.02 0.00 0.00 0.00 0.00 0.00 0.00 0.00 0.00 0.00 0.00
0.00 0.00 0.00 0.00 0.00 0.00 0.01 0.01 0.01 0.00 0.00 0.01 0.01 0.02 0.04 0.05 0.03 0.03 0.05 0.04 0.03 0.02 0.01 0.04 0.13 0.27 0.38 0.46 0.48 0.43 0.34 0.21 0.08 0.03 0.01 0.00 0.00 0.00 0.00 0.00 0.00 0.00 0.00
0.00 0.00 0.00 0.00 0.00 0.01 0.01 0.02 0.02 0.01 0.01 0.01 0.01 0.01 0.02 0.03 0.04 0.06 0.08 0.09 0.07 0.04 0.03 0.03 0.07 0.19 0.32 0.48 0.64 0.69 0.67 0.56 0.34 0.15 0.04 0.01 0.00 0.00 0.00 0.00 0.00 0.01 0.00
0.00 0.00 0.00 0.00 0.00 0.00 0.00 0.01 0.01 0.01 0.02 0.01 0.01 0.01 0.00 0.01 0.02 0.04 0.07 0.11 0.12 0.11 0.07 0.07 0.07 0.07 0.13 0.24 0.41 0.59 0.64 0.64 0.56 0.37 0.20 0.07 0.02 0.01 0.00 0.00 0.00 0.01 0.01
0.00 0.00 0.00 0.00 0.00 0.00 0.01 0.01 0.02 0.02 0.01 0.01 0.01 0.00 0.00 0.00 0.00 0.02 0.06 0.10 0.14 0.18 0.21 0.20 0.19 0.15 0.11 0.13 0.17 0.24 0.37 0.47 0.50 0.50 0.40 0.21 0.08 0.03 0.01 0.00 0.00 0.00 0.01
0.00 0.00 0.00 0.00 0.00 0.00 0.00 0.01 0.01 0.02 0.02 0.02 0.02 0.02 0.00 0.00 0.00 0.01 0.04 0.08 0.14 0.24 0.33 0.34 0.34 0.28 0.21 0.16 0.12 0.13 0.18 0.29 0.35 0.41 0.45 0.36 0.23 0.12 0.05 0.01 0.00 0.00 0.00
0.00 0.00 0.00 0.00 0.00 0.00 0.00 0.00 0.00 0.01 0.01 0.01 0.03 0.05 0.03 0.00 0.00 0.00 0.01 0.04 0.07 0.11 0.16 0.23 0.26 0.26 0.25 0.22 0.19 0.16 0.15 0.20 0.28 0.31 0.34 0.35 0.30 0.25 0.16 0.07 0.02 0.01 0.00
0.00 0.00 0.00 0.00 0.00 0.01 0.01 0.01 0.01 0.01 0.02 0.01 0.02 0.03 0.04 0.03 0.02 0.01 0.00 0.01 0.01 0.03 0.04 0.07 0.11 0.15 0.19 0.21 0.21 0.20 0.20 0.18 0.24 0.27 0.25 0.24 0.24 0.24 0.21 0.15 0.08 0.04 0.01
0.00 0.00 0.00 0.00 0.00 0.01 0.01 0.01 0.02 0.02 0.03 0.03 0.03 0.03 0.04 0.04 0.03 0.03 0.01 0.01 0.01 0.01 0.01 0.02 0.04 0.06 0.08 0.12 0.15 0.17 0.20 0.19 0.21 0.26 0.26 0.22 0.19 0.21 0.21 0.15 0.10 0.06 0.03
0.00 0.00 0.00 0.00 0.01 0.01 0.01 0.02 0.03 0.03 0.04 0.05 0.05 0.04 0.03 0.03 0.03 0.04 0.03 0.02 0.01 0.01 0.01 0.01 0.01 0.02 0.04 0.06 0.09 0.11 0.12 0.15 0.16 0.19 0.22 0.24 0.24 0.24 0.26 0.18 0.09 0.05 0.02
0.01 0.00 0.01 0.01 0.01 0.02 0.02 0.03 0.04 0.05 0.05 0.05 0.05 0.05 0.04 0.04 0.03 0.05 0.05 0.03 0.02 0.01 0.01 0.01 0.01 0.02 0.02 0.04 0.06 0.06 0.06 0.08 0.11 0.16 0.18 0.18 0.19 0.23 0.25 0.18 0.10 0.05 0.02
0.01 0.01 0.01 0.01 0.01 0.03 0.04 0.05 0.06 0.06 0.06 0.06 0.06 0.05 0.05 0.04 0.04 0.04 0.04 0.05 0.04 0.02 0.01 0.00 0.00 0.01 0.02 0.03 0.05 0.05 0.04 0.04 0.06 0.09 0.14 0.16 0.16 0.16 0.17 0.16 0.12 0.08 0.05
0.01 0.01 0.01 0.02 0.03 0.05 0.05 0.05 0.06 0.07 0.08 0.08 0.07 0.07 0.07 0.06 0.05 0.04 0.04 0.04 0.05 0.04 0.02 0.01 0.01 0.01 0.01 0.03 0.06 0.06 0.06 0.04 0.04 0.05 0.09 0.13 0.16 0.16 0.15 0.12 0.10 0.07 0.05
0.01 0.01 0.02 0.04 0.07 0.10 0.10 0.10 0.09 0.08 0.09 0.11 0.11 0.11 0.11 0.10 0.09 0.07 0.06 0.05 0.04 0.04 0.03 0.01 0.01 0.01 0.01 0.03 0.05 0.07 0.07 0.06 0.04 0.04 0.06 0.09 0.13 0.15 0.15 0.12 0.09 0.05 0.03
0.02 0.03 0.05 0.07 0.09 0.13 0.16 0.17 0.17 0.16 0.15 0.14 0.15 0.16 0.17 0.16 0.14 0.12 0.09 0.07 0.05 0.05 0.04 0.02 0.01 0.01 0.02 0.03 0.04 0.04 0.05 0.04 0.03 0.04 0.05 0.06 0.09 0.11 0.12 0.11 0.08 0.05 0.03
0.05 0.07 0.10 0.12 0.13 0.14 0.16 0.22 0.27 0.30 0.31 0.31 0.29 0.27 0.26 0.27 0.26 0.22 0.17 0.12 0.08 0.06 0.06 0.04 0.02 0.01 0.02 0.04 0.05 0.05 0.03 0.01 0.01 0.02 0.03 0.04 0.05 0.07 0.07 0.07 0.06 0.04 0.02
0.09 0.13 0.19 0.24 0.25 0.23 0.22 0.23 0.31 0.44 0.54 0.57 0.56 0.52 0.46 0.41 0.39 0.36 0.31 0.24 0.16 0.11 0.08 0.07 0.04 0.02 0.02 0.04 0.06 0.05 0.02 0.01 0.01 0.02 0.03 0.03 0.02 0.03 0.03 0.03 0.03 0.02 0.02
0.19 0.25 0.32 0.40 0.42 0.41 0.44 0.41 0.34 0.41 0.53 0.64 0.69 0.68 0.66 0.59 0.52 0.46 0.43 0.38 0.29 0.21 0.14 0.11 0.09 0.05 0.03 0.05 0.09 0.08 0.05 0.03 0.02 0.02 0.03 0.02 0.02 0.01 0.01 0.01 0.01 0.01 0.01
0.25 0.33 0.37 0.38 0.35 0.37 0.52 0.51 0.34 0.32 0.35 0.41 0.47 0.50 0.54 0.58 0.59 0.54 0.49 0.46 0.39 0.32 0.24 0.17 0.12 0.08 0.05 0.06 0.11 0.12 0.13 0.10 0.10 0.08 0.05 0.02 0.01 0.01 0.01 0.01 0.01 0.01 0.00
0.18 0.28 0.34 0.31 0.25 0.27 0.41 0.38 0.20 0.18 0.19 0.23 0.27 0.29 0.31 0.36 0.41 0.46 0.47 0.46 0.45 0.39 0.31 0.23 0.15 0.10 0.06 0.05 0.08 0.13 0.15 0.15 0.14 0.15 0.14 0.10 0.04 0.01 0.01 0.00 0.00 0.00 0.00
0.11 0.15 0.18 0.15 0.15 0.20 0.29 0.27 0.09 0.04 0.05 0.06 0.09 0.11 0.13 0.15 0.18 0.23 0.27 0.29 0.33 0.34 0.30 0.25 0.22 0.17 0.11 0.07 0.06 0.08 0.14 0.19 0.17 0.15 0.17 0.20 0.16 0.09 0.04 0.01 0.00 0.00 0.00
0.09 0.10 0.09 0.05 0.05 0.08 0.18 0.23 0.09 0.01 0.01 0.01 0.02 0.03 0.04 0.06 0.07 0.10 0.13 0.15 0.17 0.20 0.21 0.19 0.22 0.23 0.17 0.12 0.08 0.08 0.11 0.15 0.20 0.22 0.23 0.25 0.22 0.16 0.10 0.05 0.03 0.01 0.00
0.06 0.08 0.07 0.03 0.01 0.02 0.12 0.24 0.15 0.01 0.00 0.00 0.01 0.05 0.05 0.02 0.03 0.03 0.06 0.09 0.10 0.15 0.15 0.15 0.15 0.16 0.16 0.14 0.11 0.09 0.11 0.14 0.19 0.25 0.30 0.33 0.30 0.21 0.14 0.09 0.06 0.03 0.01
0.02 0.04 0.04 0.02 0.00 0.00 0.05 0.22 0.26 0.04 0.01 0.00 0.01 0.05 0.09 0.06 0.03 0.02 0.03 0.05 0.06 0.08 0.07 0.06 0.05 0.05 0.05 0.06 0.09 0.12 0.15 0.15 0.15 0.20 0.24 0.29 0.34 0.29 0.22 0.13 0.06 0.03 0.02

GEFSMA_prec_meanprecacc_024.txt.gz
Total_Precipitation_Accumulation
0.11 0.11 0.11 0.12 0.12 0.13 0.14 0.16 0.17 0.16 0.16 0.16 0.17 0.18 0.20 0.22 0.19 0.14 0.10 0.08 0.03 0.02 0.06 0.15 0.29 0.43 0.48 0.48 0.44 0.30 0.18 0.07 0.02 0.01 0.00 0.00 0.00 0.00 0.00 0.00 0.01 0.02 0.03
0.03 0.03 0.03 0.02 0.02 0.02 0.02 0.03 0.04 0.05 0.06 0.08 0.09 0.11 0.13 0.16 0.17 0.16 0.15 0.14 0.07 0.03 0.04 0.09 0.17 0.28 0.42 0.48 0.47 0.41 0.28 0.15 0.04 0.01 0.00 0.00 0.00 0.00 0.00 0.00 0.00 0.01 0.01
0.01 0.01 0.01 0.01 0.00 0.00 0.00 0.00 0.00 0.01 0.01 0.02 0.03 0.05 0.07 0.08 0.11 0.14 0.15 0.15 0.13 0.07 0.03 0.07 0.14 0.23 0.36 0.46 0.48 0.49 0.41 0.24 0.13 0.05 0.02 0.00 0.00 0.00 0.00 0.00 0.00 0.00 0.01
0.00 0.00 0.00 0.00 0.00 0.00 0.01 0.01 0.01 0.00 0.01 0.01 0.02 0.03 0.05 0.06 0.06 0.08 0.12 0.12 0.12 0.09 0.04 0.04 0.13 0.27 0.38 0.47 0.52 0.56 0.56 0.41 0.24 0.13 0.05 0.02 0.01 0.00 0.00 0.00 0.00 0.01 0.01
0.00 0.00 0.00 0.00 0.00 0.01 0.01 0.02 0.02 0.01 0.01 0.01 0.02 0.02 0.02 0.04 0.05 0.07 0.10 0.13 0.13 0.10 0.07 0.04 0.07 0.19 0.33 0.49 0.66 0.74 0.83 0.77 0.53 0.31 0.13 0.05 0.02 0.01 0.00 0.00 0.00 0.01 0.00
0.00 0.00 0.00 0.00 0.00 0.00 0.00 0.01 0.01 0.01 0.02 0.01 0.02 0.01 0.00 0.01 0.02 0.05 0.07 0.11 0.14 0.13 0.10 0.08 0.07 0.07 0.13 0.24 0.41 0.61 0.70 0.79 0.74 0.54 0.32 0.14 0.05 0.02 0.01 0.00 0.00 0.01 0.01
0.00 0.00 0.00 0.00 0.00 0.00 0.01 0.01 0.02 0.02 0.01 0.01 0.01 0.00 0.00 0.00 0.01 0.02 0.06 0.11 0.15 0.19 0.22 0.21 0.20 0.15 0.11 0.13 0.17 0.25 0.39 0.52 0.61 0.65 0.53 0.32 0.15 0.06 0.02 0.01 0.00 0.00 0.01
0.00 0.00 0.00 0.00 0.00 0.00 0.00 0.01 0.01 0.03 0.02 0.02 0.02 0.02 0.00 0.00 0.00 0.01 0.04 0.08 0.15 0.24 0.34 0.35 0.34 0.28 0.21 0.16 0.12 0.13 0.19 0.31 0.40 0.51 0.56 0.45 0.31 0.17 0.07 0.02 0.01 0.00 0.00
0.00 0.00 0.00 0.00 0.00 0.01 0.01 0.01 0.01 0.01 0.02 0.01 0.03 0.06 0.04 0.01 0.00 0.00 0.01 0.04 0.07 0.11 0.17 0.24 0.28 0.27 0.25 0.23 0.19 0.17 0.16 0.22 0.32 0.36 0.42 0.45 0.39 0.30 0.20 0.10 0.03 0.01 0.00
0.00 0.00 0.00 0.00 0.00 0.01 0.01 0.01 0.02 0.02 0.03 0.03 0.03 0.04 0.05 0.04 0.03 0.01 0.01 0.02 0.02 0.03 0.04 0.07 0.12 0.16 0.20 0.23 0.23 0.21 0.20 0.19 0.28 0.33 0.32 0.32 0.33 0.33 0.28 0.20 0.10 0.04 0.01
0.00 0.00 0.00 0.00 0.00 0.01 0.01 0.02 0.03 0.03 0.05 0.05 0.05 0.05 0.05 0.04 0.04 0.04 0.02 0.02 0.03 0.03 0.03 0.03 0.05 0.07 0.09 0.13 0.17 0.19 0.21 0.20 0.26 0.34 0.36 0.33 0.28 0.30 0.33 0.24 0.14 0.08 0.04
0.00 0.00 0.00 0.00 0.01 0.01 0.02 0.03 0.04 0.05 0.06 0.07 0.07 0.07 0.06 0.05 0.05 0.06 0.05 0.02 0.02 0.02 0.04 0.04 0.03 0.04 0.05 0.08 0.10 0.13 0.14 0.16 0.20 0.28 0.30 0.34 0.38 0.38 0.39 0.28 0.14 0.07 0.04
0.01 0.00 0.01 0.01 0.01 0.02 0.03 0.05 0.06 0.06 0.06 0.08 0.08 0.07 0.07 0.06 0.05 0.06 0.07 0.05 0.03 0.02 0.02 0.03 0.04 0.05 0.05 0.05 0.07 0.08 0.08 0.10 0.14 0.22 0.24 0.23 0.26 0.38 0.49 0.40 0.21 0.09 0.05
0.01 0.01 0.01 0.01 0.01 0.03 0.05 0.07 0.08 0.07 0.08 0.08 0.08 0.08 0.08 0.07 0.06 0.06 0.06 0.07 0.06 0.04 0.02 0.02 0.03 0.04 0.05 0.06 0.07 0.06 0.05 0.05 0.08 0.13 0.17 0.20 0.21 0.22 0.29 0.39 0.39 0.26 0.15
0.01 0.01 0.01 0.02 0.03 0.05 0.06 0.08 0.08 0.09 0.10 0.10 0.10 0.10 0.11 0.11 0.10 0.08 0.07 0.07 0.08 0.07 0.03 0.02 0.02 0.03 0.04 0.06 0.09 0.08 0.06 0.05 0.05 0.07 0.11 0.16 0.21 0.23 0.23 0.24 0.27 0.32 0.29
0.01 0.01 0.02 0.04 0.07 0.10 0.12 0.12 0.11 0.10 0.11 0.12 0.14 0.15 0.16 0.16 0.16 0.14 0.11 0.09 0.08 0.07 0.05 0.03 0.02 0.02 0.04 0.06 0.09 0.09 0.08 0.06 0.05 0.05 0.07 0.12 0.18 0.25 0.29 0.30 0.27 0.25 0.25
0.02 0.03 0.05 0.07 0.09 0.14 0.17 0.19 0.19 0.18 0.16 0.15 0.17 0.20 0.21 0.20 0.20 0.18 0.16 0.13 0.10 0.09 0.07 0.03 0.02 0.02 0.05 0.08 0.09 0.09 0.09 0.06 0.04 0.04 0.06 0.09 0.15 0.22 0.30 0.35 0.35 0.32 0.28
0.05 0.07 0.10 0.12 0.14 0.15 0.18 0.25 0.30 0.32 0.33 0.32 0.31 0.30 0.30 0.31 0.31 0.27 0.23 0.18 0.13 0.10 0.09 0.07 0.03 0.02 0.04 0.09 0.13 0.14 0.11 0.07 0.04 0.04 0.05 0.07 0.11 0.17 0.25 0.32 0.35 0.35 0.34
0.09 0.13 0.19 0.24 0.25 0.24 0.24 0.26 0.35 0.48 0.55 0.59 0.59 0.56 0.51 0.46 0.44 0.41 0.36 0.29 0.20 0.14 0.11 0.10 0.07 0.04 0.05 0.10 0.16 0.18 0.15 0.10 0.06 0.06 0.06 0.06 0.07 0.11 0.17 0.22 0.28 0.31 0.31
0.19 0.25 0.32 0.40 0.42 0.42 0.45 0.46 0.45 0.46 0.55 0.65 0.71 0.72 0.72 0.68 0.61 0.55 0.50 0.42 0.32 0.23 0.18 0.16 0.14 0.10 0.08 0.12 0.22 0.23 0.18 0.13 0.08 0.06 0.06 0.05 0.06 0.07 0.09 0.12 0.15 0.20 0.25
0.25 0.33 0.37 0.38 0.35 0.38 0.54 0.65 0.53 0.37 0.36 0.41 0.48 0.53 0.59 0.68 0.73 0.69 0.63 0.55 0.44 0.36 0.28 0.23 0.19 0.17 0.13 0.15 0.25 0.28 0.26 0.20 0.17 0.13 0.08 0.04 0.03 0.03 0.06 0.09 0.13 0.17 0.20
0.18 0.28 0.34 0.31 0.25 0.27 0.43 0.52 0.36 0.21 0.20 0.23 0.29 0.32 0.35 0.45 0.52 0.59 0.64 0.61 0.59 0.52 0.44 0.36 0.29 0.24 0.19 0.18 0.25 0.35 0.31 0.25 0.23 0.21 0.18 0.14 0.08 0.06 0.06 0.06 0.10 0.12 0.14
0.11 0.16 0.18 0.15 0.15 0.20 0.33 0.40 0.23 0.07 0.06 0.09 0.13 0.16 0.17 0.22 0.27 0.32 0.39 0.44 0.53 0.61 0.62 0.56 0.52 0.42 0.31 0.26 0.27 0.33 0.35 0.31 0.25 0.22 0.21 0.25 0.23 0.16 0.11 0.10 0.12 0.10 0.09
0.09 0.11 0.09 0.05 0.05 0.08 0.22 0.35 0.19 0.02 0.02 0.05 0.09 0.09 0.08 0.11 0.15 0.17 0.21 0.27 0.35 0.49 0.62 0.66 0.69 0.62 0.47 0.35 0.33 0.38 0.43 0.38 0.33 0.31 0.27 0.29 0.28 0.25 0.20 0.17 0.15 0.10 0.06
0.07 0.09 0.07 0.03 0.01 0.03 0.15 0.35 0.24 0.02 0.02 0.05 0.10 0.11 0.07 0.05 0.09 0.07 0.10 0.16 0.21 0.34 0.44 0.52 0.56 0.55 0.51 0.46 0.44 0.45 0.47 0.46 0.47 0.46 0.40 0.39 0.36 0.27 0.23 0.21 0.19 0.12 0.06
0.02 0.04 0.04 0.02 0.00 0.01 0.08 0.30 0.35 0.06 0.03 0.04 0.06 0.08 0.12 0.08 0.06 0.03 0.05 0.08 0.11 0.18 0.21 0.25 0.29 0.34 0.37 0.39 0.45 0.52 0.56 0.50 0.50 0.52 0.46 0.39 0.42 0.35 0.29 0.22 0.14 0.09 0.06

GEFSMA_prec_meanprecacc_030.txt.gz
Total_Precipitation_Accumulation
0.11 0.11 0.11 0.12 0.12 0.13 0.14 0.16 0.17 0.16 0.16 0.16 0.17 0.18 0.21 0.23 0.21 0.17 0.14 0.12 0.08 0.08 0.14 0.27 0.47 0.64 0.75 0.77 0.72 0.54 0.38 0.21 0.07 0.02 0.01 0.01 0.01 0.01 0.01 0.01 0.02 0.03 0.04
0.03 0.03 0.03 0.02 0.02 0.02 0.02 0.03 0.04 0.05 0.06 0.08 0.09 0.11 0.13 0.16 0.18 0.19 0.19 0.21 0.16 0.12 0.13 0.19 0.30 0.45 0.63 0.74 0.77 0.71 0.54 0.38 0.19 0.06 0.02 0.01 0.00 0.00 0.00 0.01 0.01 0.02 0.02
0.01 0.01 0.01 0.01 0.00 0.00 0.00 0.00 0.00 0.01 0.01 0.02 0.03 0.05 0.07 0.08 0.12 0.15 0.18 0.22 0.23 0.19 0.17 0.20 0.25 0.36 0.52 0.66 0.71 0.81 0.71 0.52 0.37 0.19 0.06 0.02 0.00 0.00 0.00 0.00 0.01 0.01 0.02
0.00 0.00 0.00 0.00 0.00 0.00 0.01 0.01 0.01 0.00 0.01 0.01 0.02 0.03 0.05 0.06 0.06 0.09 0.14 0.16 0.19 0.21 0.19 0.20 0.27 0.38 0.48 0.60 0.68 0.82 0.88 0.69 0.54 0.41 0.19 0.07 0.02 0.01 0.00 0.00 0.01 0.01 0.02
0.00 0.00 0.00 0.00 0.00 0.01 0.01 0.02 0.02 0.01 0.01 0.01 0.02 0.02 0.02 0.04 0.05 0.08 0.11 0.14 0.17 0.18 0.20 0.20 0.23 0.31 0.42 0.57 0.75 0.88 1.07 1.05 0.83 0.64 0.39 0.19 0.08 0.03 0.01 0.01 0.01 0.01 0.01
0.00 0.00 0.00 0.00 0.00 0.00 0.00 0.01 0.01 0.01 0.02 0.01 0.02 0.01 0.00 0.01 0.02 0.05 0.07 0.12 0.16 0.17 0.18 0.23 0.25 0.21 0.23 0.32 0.48 0.69 0.83 0.99 1.01 0.85 0.63 0.38 0.18 0.07 0.03 0.01 0.01 0.01 0.02
0.00 0.00 0.00 0.00 0.00 0.01 0.01 0.01 0.02 0.02 0.02 0.01 0.01 0.00 0.00 0.00 0.01 0.02 0.06 0.11 0.15 0.20 0.26 0.31 0.36 0.32 0.23 0.22 0.23 0.30 0.46 0.65 0.80 0.92 0.82 0.62 0.35 0.17 0.08 0.03 0.01 0.01 0.01
0.00 0.00 0.00 0.00 0.00 0.00 0.00 0.01 0.02 0.04 0.03 0.02 0.03 0.04 0.01 0.00 0.00 0.01 0.04 0.08 0.15 0.25 0.36 0.41 0.44 0.44 0.37 0.27 0.17 0.16 0.23 0.39 0.54 0.70 0.81 0.72 0.57 0.35 0.17 0.09 0.04 0.01 0.01
0.00 0.00 0.00 0.00 0.00 0.01 0.01 0.01 0.01 0.03 0.04 0.03 0.04 0.10 0.09 0.03 0.01 0.00 0.01 0.04 0.07 0.11 0.18 0.27 0.33 0.36 0.40 0.38 0.29 0.20 0.18 0.25 0.41 0.52 0.61 0.67 0.62 0.51 0.34 0.18 0.08 0.03 0.01
0.00 0.00 0.00 0.00 0.00 0.01 0.01 0.02 0.02 0.04 0.07 0.07 0.05 0.06 0.08 0.07 0.06 0.03 0.01 0.02 0.02 0.03 0.05 0.09 0.15 0.21 0.30 0.35 0.35 0.29 0.23 0.21 0.33 0.45 0.50 0.51 0.54 0.52 0.42 0.28 0.16 0.08 0.03
0.00 0.00 0.00 0.00 0.00 0.01 0.01 0.02 0.03 0.05 0.08 0.10 0.10 0.08 0.08 0.06 0.06 0.07 0.03 0.02 0.03 0.03 0.03 0.04 0.06 0.09 0.13 0.20 0.26 0.28 0.27 0.23 0.30 0.42 0.50 0.52 0.47 0.49 0.50 0.34 0.19 0.12 0.06
0.00 0.00 0.00 0.00 0.01 0.01 0.02 0.03 0.05 0.06 0.08 0.10 0.11 0.11 0.12 0.11 0.08 0.10 0.08 0.03 0.02 0.03 0.04 0.04 0.05 0.05 0.07 0.11 0.15 0.20 0.22 0.23 0.26 0.35 0.39 0.51 0.60 0.58 0.58 0.42 0.21 0.11 0.06
0.01 0.00 0.01 0.01 0.01 0.02 0.03 0.05 0.07 0.07 0.08 0.11 0.12 0.12 0.11 0.09 0.08 0.09 0.10 0.06 0.03 0.02 0.03 0.04 0.05 0.06 0.07 0.09 0.11 0.13 0.15 0.17 0.23 0.31 0.31 0.31 0.42 0.61 0.73 0.63 0.37 0.16 0.07
0.01 0.01 0.01 0.01 0.01 0.03 0.05 0.07 0.08 0.09 0.10 0.11 0.11 0.11 0.10 0.08 0.08 0.09 0.10 0.11 0.08 0.04 0.03 0.03 0.04 0.06 0.08 0.09 0.11 0.12 0.11 0.12 0.15 0.22 0.27 0.28 0.29 0.37 0.53 0.74 0.78 0.55 0.30
0.01 0.01 0.01 0.02 0.03 0.05 0.06 0.08 0.09 0.10 0.12 0.13 0.13 0.12 0.12 0.12 0.12 0.11 0.11 0.12 0.13 0.09 0.04 0.03 0.04 0.06 0.08 0.11 0.14 0.13 0.11 0.10 0.11 0.13 0.18 0.24 0.28 0.31 0.37 0.47 0.61 0.75 0.69
0.01 0.01 0.02 0.05 0.07 0.10 0.12 0.12 0.12 0.11 0.13 0.15 0.16 0.16 0.17 0.17 0.18 0.17 0.16 0.14 0.13 0.11 0.07 0.03 0.05 0.07 0.09 0.11 0.15 0.15 0.14 0.13 0.11 0.11 0.12 0.17 0.24 0.31 0.38 0.44 0.48 0.53 0.62
0.02 0.03 0.05 0.07 0.10 0.14 0.18 0.20 0.20 0.20 0.19 0.17 0.17 0.21 0.22 0.22 0.22 0.21 0.20 0.18 0.15 0.14 0.11 0.04 0.03 0.07 0.12 0.15 0.16 0.15 0.15 0.12 0.09 0.09 0.09 0.12 0.19 0.27 0.36 0.45 0.48 0.50 0.55
0.05 0.07 0.10 0.12 0.14 0.15 0.19 0.26 0.33 0.35 0.36 0.35 0.32 0.32 0.33 0.35 0.36 0.32 0.29 0.24 0.20 0.16 0.14 0.09 0.04 0.05 0.12 0.18 0.23 0.21 0.17 0.13 0.09 0.08 0.08 0.09 0.13 0.20 0.30 0.38 0.45 0.48 0.53
0.09 0.13 0.19 0.25 0.26 0.24 0.25 0.29 0.40 0.53 0.60 0.62 0.62 0.60 0.57 0.55 0.53 0.50 0.46 0.38 0.29 0.21 0.17 0.14 0.09 0.06 0.10 0.18 0.27 0.28 0.22 0.16 0.11 0.10 0.09 0.08 0.08 0.13 0.20 0.28 0.36 0.41 0.43
0.19 0.26 0.32 0.41 0.43 0.44 0.51 0.57 0.60 0.57 0.59 0.68 0.74 0.77 0.81 0.81 0.76 0.69 0.64 0.52 0.39 0.29 0.23 0.20 0.16 0.12 0.11 0.17 0.31 0.34 0.28 0.19 0.13 0.09 0.09 0.07 0.06 0.08 0.10 0.15 0.20 0.28 0.40
0.25 0.33 0.37 0.38 0.36 0.42 0.69 0.94 0.81 0.48 0.39 0.43 0.50 0.56 0.67 0.80 0.85 0.84 0.79 0.66 0.51 0.41 0.32 0.26 0.22 0.18 0.16 0.20 0.31 0.37 0.36 0.29 0.24 0.18 0.11 0.05 0.04 0.04 0.06 0.11 0.18 0.25 0.34
0.18 0.28 0.34 0.31 0.26 0.35 0.64 0.82 0.59 0.28 0.23 0.26 0.31 0.34 0.39 0.52 0.58 0.66 0.73 0.71 0.69 0.61 0.51 0.42 0.34 0.27 0.23 0.22 0.29 0.41 0.40 0.34 0.30 0.26 0.21 0.16 0.09 0.07 0.06 0.08 0.13 0.19 0.26
0.11 0.16 0.18 0.15 0.16 0.27 0.52 0.62 0.37 0.11 0.11 0.13 0.16 0.17 0.19 0.27 0.31 0.36 0.44 0.50 0.60 0.69 0.71 0.65 0.59 0.50 0.36 0.29 0.30 0.37 0.41 0.38 0.31 0.28 0.28 0.31 0.27 0.19 0.13 0.13 0.17 0.18 0.19
0.09 0.11 0.09 0.05 0.05 0.14 0.39 0.51 0.26 0.05 0.06 0.09 0.12 0.11 0.09 0.14 0.20 0.20 0.25 0.32 0.42 0.57 0.73 0.78 0.80 0.72 0.53 0.38 0.35 0.40 0.48 0.45 0.40 0.40 0.37 0.38 0.38 0.32 0.28 0.26 0.25 0.20 0.16
0.07 0.09 0.07 0.03 0.01 0.05 0.29 0.50 0.28 0.03 0.04 0.06 0.10 0.12 0.08 0.06 0.12 0.08 0.10 0.18 0.24 0.39 0.51 0.62 0.66 0.62 0.55 0.49 0.46 0.46 0.52 0.56 0.59 0.59 0.53 0.50 0.50 0.41 0.39 0.42 0.41 0.30 0.19
0.02 0.04 0.04 0.02 0.00 0.01 0.15 0.45 0.40 0.06 0.03 0.05 0.06 0.08 0.13 0.10 0.08 0.05 0.05 0.09 0.13 0.21 0.25 0.31 0.35 0.40 0.42 0.42 0.47 0.54 0.61 0.62 0.65 0.71 0.64 0.53 0.58 0.49 0.51 0.51 0.41 0.29 0.21

GEFSMA_prec_meanprecacc_036.txt.gz
Total_Precipitation_Accumulation
0.11 0.11 0.11 0.12 0.12 0.13 0.14 0.16 0.17 0.16 0.16 0.16 0.17 0.18 0.21 0.23 0.21 0.17 0.14 0.12 0.08 0.08 0.14 0.28 0.51 0.74 0.93 1.01 0.99 0.82 0.69 0.46 0.21 0.10 0.09 0.09 0.06 0.03 0.03 0.03 0.03 0.05 0.06
0.03 0.03 0.03 0.02 0.02 0.02 0.02 0.03 0.04 0.05 0.06 0.08 0.09 0.11 0.13 0.16 0.18 0.19 0.19 0.21 0.16 0.13 0.14 0.19 0.31 0.52 0.80 1.00 1.07 1.01 0.85 0.69 0.43 0.20 0.10 0.08 0.07 0.04 0.03 0.03 0.03 0.03 0.04
0.01 0.01 0.01 0.01 0.00 0.00 0.00 0.00 0.00 0.01 0.01 0.02 0.03 0.05 0.07 0.08 0.12 0.15 0.18 0.22 0.23 0.20 0.17 0.20 0.25 0.39 0.65 0.92 1.07 1.17 1.05 0.87 0.69 0.46 0.22 0.10 0.07 0.05 0.03 0.03 0.03 0.03 0.04
0.00 0.00 0.00 0.00 0.00 0.00 0.01 0.01 0.01 0.00 0.01 0.01 0.02 0.03 0.05 0.06 0.06 0.09 0.14 0.16 0.19 0.21 0.20 0.20 0.27 0.39 0.54 0.77 1.02 1.24 1.30 1.10 0.94 0.79 0.51 0.27 0.12 0.07 0.05 0.03 0.03 0.04 0.05
0.00 0.00 0.00 0.00 0.00 0.01 0.01 0.02 0.02 0.01 0.01 0.01 0.02 0.02 0.02 0.04 0.05 0.08 0.11 0.14 0.17 0.18 0.20 0.21 0.24 0.32 0.44 0.63 0.94 1.24 1.54 1.52 1.28 1.08 0.82 0.54 0.30 0.16 0.09 0.06 0.04 0.05 0.05
0.00 0.00 0.00 0.00 0.00 0.00 0.00 0.01 0.01 0.01 0.02 0.01 0.02 0.01 0.00 0.01 0.02 0.05 0.07 0.12 0.16 0.17 0.18 0.23 0.26 0.23 0.25 0.34 0.55 0.88 1.21 1.49 1.51 1.34 1.15 0.86 0.55 0.33 0.19 0.10 0.06 0.07 0.07
0.00 0.00 0.00 0.00 0.00 0.01 0.01 0.01 0.02 0.02 0.02 0.01 0.02 0.01 0.00 0.00 0.01 0.02 0.06 0.11 0.15 0.21 0.27 0.31 0.37 0.35 0.27 0.25 0.27 0.37 0.66 1.08 1.35 1.45 1.37 1.21 0.89 0.55 0.35 0.20 0.12 0.09 0.08
0.00 0.00 0.00 0.00 0.00 0.00 0.00 0.01 0.02 0.04 0.03 0.02 0.05 0.06 0.02 0.00 0.00 0.01 0.04 0.08 0.15 0.25 0.36 0.41 0.45 0.46 0.41 0.32 0.22 0.20 0.29 0.58 1.02 1.35 1.40 1.33 1.27 0.96 0.56 0.35 0.22 0.14 0.11
0.00 0.00 0.00 0.00 0.00 0.01 0.01 0.01 0.01 0.03 0.05 0.03 0.05 0.16 0.17 0.08 0.02 0.00 0.01 0.04 0.07 0.11 0.18 0.27 0.34 0.38 0.44 0.45 0.36 0.26 0.21 0.30 0.60 1.07 1.37 1.35 1.30 1.31 0.99 0.57 0.34 0.20 0.13
0.00 0.00 0.00 0.00 0.00 0.01 0.01 0.02 0.02 0.04 0.07 0.08 0.06 0.08 0.14 0.15 0.13 0.06 0.01 0.02 0.02 0.03 0.05 0.09 0.15 0.22 0.32 0.42 0.45 0.40 0.30 0.25 0.38 0.64 1.07 1.31 1.24 1.27 1.30 0.94 0.53 0.30 0.18
0.00 0.00 0.00 0.00 0.00 0.01 0.01 0.02 0.03 0.05 0.08 0.12 0.12 0.10 0.10 0.09 0.11 0.13 0.05 0.02 0.03 0.03 0.03 0.04 0.07 0.10 0.15 0.25 0.34 0.41 0.40 0.29 0.33 0.47 0.71 1.06 1.20 1.19 1.29 1.19 0.79 0.44 0.24
0.00 0.00 0.00 0.00 0.01 0.01 0.02 0.03 0.05 0.06 0.08 0.10 0.13 0.14 0.16 0.17 0.13 0.14 0.10 0.03 0.02 0.03 0.04 0.04 0.05 0.06 0.08 0.14 0.21 0.32 0.36 0.34 0.31 0.38 0.45 0.69 1.09 1.23 1.26 1.20 0.96 0.62 0.33
0.01 0.00 0.01 0.01 0.01 0.02 0.03 0.05 0.07 0.07 0.08 0.11 0.14 0.14 0.14 0.14 0.12 0.13 0.13 0.08 0.04 0.02 0.03 0.04 0.05 0.07 0.08 0.10 0.16 0.21 0.26 0.31 0.33 0.36 0.34 0.36 0.60 1.07 1.36 1.35 1.11 0.79 0.51
0.01 0.01 0.01 0.01 0.02 0.03 0.05 0.07 0.09 0.09 0.10 0.12 0.12 0.13 0.13 0.10 0.10 0.12 0.13 0.14 0.11 0.05 0.03 0.03 0.04 0.06 0.09 0.11 0.14 0.16 0.18 0.22 0.28 0.31 0.31 0.30 0.33 0.54 0.95 1.40 1.59 1.31 0.88
0.01 0.01 0.01 0.02 0.04 0.06 0.08 0.09 0.10 0.11 0.13 0.14 0.15 0.14 0.15 0.14 0.13 0.13 0.13 0.15 0.19 0.14 0.05 0.03 0.05 0.06 0.08 0.12 0.16 0.16 0.16 0.18 0.21 0.24 0.26 0.27 0.30 0.35 0.49 0.80 1.31 1.63 1.50
0.01 0.01 0.02 0.05 0.09 0.12 0.14 0.15 0.14 0.14 0.17 0.18 0.19 0.20 0.20 0.21 0.20 0.19 0.19 0.17 0.17 0.18 0.11 0.04 0.05 0.07 0.09 0.11 0.16 0.17 0.17 0.18 0.18 0.20 0.22 0.23 0.26 0.33 0.41 0.53 0.79 1.23 1.48
0.02 0.03 0.05 0.08 0.12 0.18 0.22 0.25 0.25 0.26 0.26 0.23 0.23 0.27 0.28 0.27 0.27 0.24 0.23 0.22 0.19 0.19 0.16 0.06 0.03 0.07 0.12 0.15 0.17 0.17 0.18 0.16 0.14 0.16 0.19 0.20 0.23 0.29 0.38 0.49 0.58 0.83 1.23
0.05 0.07 0.11 0.15 0.18 0.22 0.25 0.34 0.40 0.42 0.44 0.42 0.40 0.39 0.39 0.40 0.41 0.37 0.35 0.30 0.26 0.22 0.20 0.13 0.05 0.05 0.12 0.19 0.25 0.24 0.21 0.17 0.13 0.14 0.15 0.17 0.18 0.23 0.32 0.41 0.49 0.60 0.86
0.09 0.13 0.20 0.28 0.32 0.33 0.33 0.35 0.48 0.61 0.67 0.69 0.68 0.67 0.64 0.60 0.59 0.57 0.54 0.45 0.35 0.26 0.22 0.18 0.11 0.07 0.11 0.21 0.31 0.32 0.28 0.20 0.14 0.15 0.15 0.15 0.15 0.17 0.22 0.29 0.38 0.46 0.55
0.19 0.26 0.33 0.44 0.51 0.57 0.62 0.65 0.68 0.63 0.64 0.72 0.78 0.81 0.86 0.87 0.83 0.78 0.73 0.59 0.44 0.32 0.25 0.22 0.17 0.13 0.12 0.20 0.36 0.41 0.37 0.29 0.19 0.15 0.16 0.14 0.14 0.13 0.13 0.16 0.21 0.31 0.46
0.25 0.33 0.38 0.40 0.42 0.62 0.92 1.04 0.88 0.52 0.41 0.45 0.52 0.58 0.69 0.83 0.89 0.91 0.90 0.73 0.56 0.44 0.35 0.28 0.23 0.20 0.17 0.22 0.37 0.45 0.49 0.45 0.38 0.27 0.19 0.12 0.10 0.09 0.09 0.13 0.19 0.27 0.37
0.18 0.28 0.35 0.32 0.31 0.51 0.85 0.91 0.62 0.30 0.24 0.27 0.31 0.34 0.40 0.55 0.61 0.68 0.78 0.77 0.76 0.69 0.57 0.45 0.36 0.29 0.25 0.26 0.35 0.50 0.52 0.54 0.52 0.42 0.32 0.24 0.16 0.12 0.09 0.09 0.14 0.21 0.28
0.11 0.16 0.18 0.15 0.18 0.37 0.67 0.68 0.38 0.12 0.11 0.14 0.16 0.17 0.19 0.28 0.36 0.38 0.46 0.52 0.63 0.74 0.77 0.70 0.63 0.53 0.40 0.34 0.35 0.44 0.51 0.56 0.56 0.55 0.51 0.46 0.36 0.25 0.17 0.16 0.19 0.20 0.23
0.09 0.11 0.09 0.05 0.06 0.18 0.51 0.58 0.27 0.05 0.06 0.09 0.12 0.11 0.09 0.15 0.25 0.23 0.25 0.33 0.44 0.60 0.77 0.83 0.86 0.77 0.57 0.41 0.38 0.45 0.56 0.58 0.61 0.71 0.71 0.65 0.54 0.39 0.32 0.28 0.28 0.22 0.19
0.07 0.09 0.07 0.03 0.01 0.06 0.37 0.59 0.30 0.03 0.04 0.06 0.10 0.12 0.09 0.07 0.16 0.11 0.11 0.19 0.25 0.39 0.52 0.65 0.69 0.66 0.58 0.52 0.48 0.49 0.57 0.65 0.76 0.86 0.87 0.82 0.73 0.51 0.44 0.45 0.43 0.32 0.22
0.02 0.04 0.04 0.02 0.00 0.01 0.19 0.54 0.44 0.06 0.03 0.05 0.06 0.08 0.13 0.12 0.10 0.07 0.06 0.10 0.15 0.22 0.26 0.32 0.36 0.41 0.43 0.44 0.50 0.57 0.66 0.70 0.79 0.94 0.95 0.86 0.88 0.67 0.59 0.57 0.45 0.33 0.25

GEFSMA_prec_meanprecacc_042.txt.gz
Total_Precipitation_Accumulation
0.11 0.11 0.11 0.12 0.12 0.13 0.14 0.16 0.17 0.16 0.16 0.16 0.17 0.18 0.21 0.23 0.21 0.17 0.14 0.12 0.08 0.08 0.14 0.28 0.51 0.74 0.93 1.03 1.03 0.88 0.80 0.67 0.50 0.38 0.33 0.35 0.33 0.26 0.18 0.15 0.12 0.08 0.07
0.03 0.03 0.03 0.02 0.02 0.02 0.02 0.03 0.04 0.05 0.06 0.08 0.09 0.11 0.13 0.16 0.18 0.19 0.19 0.21 0.16 0.13 0.14 0.19 0.31 0.52 0.80 1.01 1.10 1.06 0.93 0.84 0.66 0.48 0.38 0.34 0.34 0.31 0.22 0.16 0.12 0.09 0.06
0.01 0.01 0.01 0.01 0.00 0.00 0.00 0.00 0.00 0.01 0.01 0.02 0.03 0.05 0.07 0.08 0.12 0.15 0.18 0.22 0.23 0.20 0.17 0.20 0.25 0.39 0.65 0.92 1.08 1.21 1.12 0.98 0.86 0.72 0.51 0.36 0.32 0.33 0.27 0.20 0.14 0.11 0.08
0.00 0.00 0.00 0.00 0.00 0.00 0.01 0.01 0.01 0.00 0.01 0.01 0.02 0.03 0.05 0.06 0.06 0.09 0.14 0.16 0.19 0.21 0.20 0.20 0.27 0.39 0.54 0.78 1.02 1.26 1.36 1.20 1.09 1.03 0.83 0.57 0.37 0.32 0.30 0.24 0.19 0.13 0.11
0.00 0.00 0.00 0.00 0.00 0.01 0.01 0.02 0.02 0.01 0.01 0.01 0.02 0.02 0.02 0.04 0.05 0.08 0.11 0.14 0.17 0.18 0.20 0.21 0.24 0.32 0.44 0.63 0.94 1.26 1.58 1.60 1.41 1.28 1.11 0.91 0.64 0.41 0.33 0.27 0.24 0.18 0.13
0.00 0.00 0.00 0.00 0.00 0.00 0.00 0.01 0.01 0.01 0.02 0.01 0.02 0.01 0.00 0.01 0.02 0.05 0.07 0.12 0.16 0.17 0.18 0.23 0.26 0.23 0.25 0.34 0.55 0.89 1.24 1.56 1.61 1.51 1.39 1.19 0.95 0.67 0.45 0.32 0.28 0.25 0.20
0.00 0.00 0.00 0.00 0.00 0.01 0.01 0.01 0.02 0.02 0.02 0.01 0.02 0.01 0.00 0.00 0.01 0.02 0.06 0.11 0.15 0.21 0.27 0.31 0.37 0.35 0.27 0.25 0.27 0.37 0.67 1.12 1.45 1.59 1.57 1.50 1.25 0.94 0.67 0.44 0.33 0.32 0.26
0.00 0.00 0.00 0.00 0.00 0.00 0.00 0.01 0.02 0.04 0.03 0.02 0.05 0.07 0.02 0.00 0.00 0.01 0.04 0.08 0.15 0.25 0.36 0.41 0.45 0.46 0.41 0.32 0.22 0.21 0.29 0.60 1.09 1.49 1.58 1.56 1.57 1.33 0.92 0.63 0.45 0.38 0.33
0.00 0.00 0.00 0.00 0.00 0.01 0.01 0.01 0.01 0.03 0.05 0.03 0.06 0.18 0.19 0.09 0.02 0.00 0.01 0.04 0.07 0.11 0.18 0.27 0.34 0.38 0.44 0.45 0.36 0.27 0.22 0.31 0.63 1.16 1.57 1.60 1.58 1.63 1.36 0.89 0.58 0.41 0.35
0.00 0.00 0.00 0.00 0.00 0.01 0.01 0.02 0.02 0.04 0.08 0.09 0.06 0.09 0.16 0.18 0.17 0.07 0.01 0.02 0.02 0.03 0.05 0.09 0.15 0.22 0.32 0.42 0.46 0.40 0.31 0.26 0.39 0.69 1.22 1.65 1.63 1.64 1.68 1.29 0.82 0.52 0.39
0.00 0.00 0.00 0.00 0.00 0.01 0.02 0.02 0.03 0.05 0.09 0.13 0.13 0.11 0.10 0.10 0.13 0.17 0.07 0.02 0.03 0.03 0.03 0.04 0.07 0.10 0.15 0.25 0.34 0.41 0.41 0.30 0.34 0.49 0.77 1.32 1.77 1.82 1.82 1.63 1.14 0.70 0.46
0.00 0.00 0.00 0.00 0.01 0.01 0.02 0.04 0.06 0.07 0.09 0.12 0.14 0.16 0.18 0.19 0.14 0.17 0.13 0.04 0.02 0.03 0.04 0.04 0.05 0.06 0.08 0.14 0.22 0.33 0.37 0.35 0.33 0.39 0.48 0.79 1.44 1.97 2.06 1.85 1.45 0.99 0.60
0.01 0.00 0.01 0.01 0.01 0.03 0.04 0.06 0.09 0.10 0.11 0.14 0.16 0.16 0.16 0.15 0.14 0.16 0.17 0.09 0.04 0.02 0.03 0.04 0.05 0.07 0.08 0.10 0.16 0.22 0.27 0.33 0.36 0.38 0.36 0.39 0.72 1.48 2.16 2.27 1.86 1.33 0.89
0.01 0.01 0.01 0.01 0.02 0.04 0.07 0.10 0.12 0.12 0.14 0.16 0.16 0.17 0.17 0.13 0.14 0.16 0.18 0.19 0.14 0.05 0.03 0.03 0.04 0.06 0.09 0.11 0.14 0.17 0.19 0.25 0.31 0.34 0.33 0.32 0.38 0.69 1.41 2.24 2.62 2.13 1.44
0.01 0.01 0.01 0.02 0.04 0.07 0.09 0.12 0.14 0.16 0.19 0.21 0.21 0.21 0.22 0.20 0.19 0.18 0.18 0.22 0.27 0.18 0.06 0.03 0.05 0.06 0.08 0.12 0.16 0.16 0.16 0.19 0.24 0.29 0.30 0.30 0.33 0.41 0.68 1.29 2.16 2.70 2.39
0.01 0.01 0.03 0.05 0.09 0.13 0.16 0.17 0.18 0.19 0.23 0.25 0.27 0.28 0.29 0.28 0.26 0.25 0.24 0.22 0.23 0.24 0.14 0.04 0.05 0.07 0.09 0.11 0.16 0.17 0.18 0.19 0.20 0.23 0.27 0.27 0.30 0.36 0.48 0.74 1.27 2.10 2.53
0.02 0.03 0.06 0.09 0.13 0.19 0.23 0.27 0.28 0.30 0.30 0.28 0.29 0.33 0.34 0.33 0.32 0.29 0.29 0.27 0.24 0.25 0.21 0.06 0.03 0.07 0.12 0.15 0.17 0.17 0.18 0.17 0.16 0.18 0.23 0.26 0.28 0.33 0.43 0.58 0.80 1.32 2.07
0.05 0.07 0.11 0.15 0.19 0.23 0.27 0.35 0.41 0.44 0.46 0.45 0.43 0.42 0.42 0.43 0.44 0.41 0.40 0.35 0.29 0.26 0.25 0.15 0.06 0.06 0.12 0.19 0.25 0.24 0.21 0.17 0.14 0.15 0.18 0.22 0.26 0.29 0.37 0.47 0.60 0.85 1.36
0.09 0.13 0.20 0.28 0.33 0.35 0.36 0.37 0.48 0.61 0.68 0.70 0.69 0.68 0.65 0.62 0.62 0.60 0.57 0.48 0.37 0.29 0.25 0.21 0.12 0.08 0.12 0.22 0.31 0.33 0.28 0.21 0.15 0.16 0.18 0.20 0.23 0.25 0.29 0.36 0.46 0.60 0.83
0.19 0.26 0.33 0.44 0.51 0.60 0.71 0.71 0.69 0.63 0.64 0.72 0.78 0.81 0.87 0.89 0.88 0.82 0.77 0.62 0.46 0.34 0.27 0.24 0.19 0.14 0.13 0.21 0.37 0.42 0.38 0.30 0.20 0.16 0.18 0.19 0.22 0.24 0.24 0.24 0.27 0.39 0.62
0.25 0.33 0.38 0.40 0.42 0.64 1.09 1.22 0.90 0.52 0.41 0.45 0.52 0.58 0.69 0.84 0.93 0.95 0.94 0.78 0.59 0.47 0.37 0.31 0.25 0.21 0.18 0.24 0.38 0.46 0.50 0.47 0.39 0.29 0.22 0.17 0.18 0.18 0.19 0.22 0.27 0.35 0.49
0.18 0.28 0.35 0.32 0.31 0.52 0.97 1.07 0.65 0.30 0.24 0.27 0.31 0.34 0.40 0.55 0.64 0.71 0.80 0.80 0.80 0.75 0.63 0.49 0.39 0.32 0.28 0.30 0.37 0.51 0.54 0.56 0.55 0.45 0.37 0.30 0.24 0.21 0.20 0.19 0.22 0.27 0.37
0.11 0.16 0.18 0.15 0.18 0.38 0.74 0.82 0.42 0.12 0.11 0.14 0.16 0.17 0.19 0.29 0.40 0.43 0.47 0.53 0.64 0.77 0.84 0.76 0.68 0.57 0.43 0.37 0.38 0.45 0.53 0.58 0.60 0.59 0.55 0.53 0.46 0.35 0.28 0.27 0.30 0.27 0.29
0.09 0.11 0.09 0.05 0.06 0.18 0.55 0.69 0.33 0.06 0.06 0.09 0.12 0.11 0.09 0.15 0.30 0.29 0.26 0.34 0.45 0.61 0.81 0.88 0.91 0.81 0.60 0.44 0.40 0.47 0.57 0.60 0.65 0.75 0.75 0.71 0.63 0.49 0.44 0.40 0.38 0.30 0.25
0.07 0.09 0.07 0.03 0.01 0.06 0.38 0.67 0.39 0.06 0.05 0.07 0.10 0.12 0.09 0.08 0.19 0.14 0.12 0.20 0.27 0.41 0.54 0.68 0.73 0.69 0.60 0.53 0.50 0.50 0.59 0.67 0.80 0.92 0.92 0.88 0.83 0.62 0.57 0.58 0.53 0.40 0.28
0.02 0.04 0.04 0.02 0.00 0.01 0.19 0.58 0.54 0.13 0.05 0.05 0.06 0.08 0.14 0.13 0.12 0.09 0.07 0.11 0.18 0.24 0.27 0.33 0.37 0.42 0.44 0.44 0.51 0.59 0.68 0.72 0.83 1.01 1.03 0.93 0.98 0.80 0.75 0.73 0.58 0.41 0.30

GEFSMA_prec_meanprecacc_048.txt.gz
Total_Precipitation_Accumulation
0.11 0.11 0.11 0.12 0.12 0.13 0.14 0.16 0.17 0.16 0.16 0.16 0.17 0.18 0.21 0.23 0.21 0.17 0.14 0.12 0.08 0.08 0.14 0.28 0.51 0.75 0.93 1.03 1.03 0.88 0.81 0.68 0.51 0.42 0.39 0.47 0.50 0.49 0.50 0.54 0.44 0.30 0.20
0.03 0.03 0.03 0.02 0.02 0.02 0.02 0.03 0.04 0.05 0.06 0.08 0.09 0.11 0.13 0.16 0.18 0.19 0.19 0.21 0.16 0.13 0.14 0.19 0.31 0.52 0.80 1.01 1.10 1.07 0.93 0.84 0.67 0.50 0.43 0.43 0.49 0.49 0.48 0.49 0.50 0.39 0.24
0.01 0.01 0.01 0.01 0.00 0.00 0.00 0.00 0.00 0.01 0.01 0.02 0.03 0.05 0.07 0.08 0.12 0.15 0.18 0.22 0.23 0.20 0.17 0.20 0.25 0.39 0.65 0.92 1.09 1.21 1.12 0.98 0.87 0.73 0.54 0.43 0.45 0.49 0.47 0.47 0.49 0.47 0.37
0.00 0.00 0.00 0.00 0.00 0.00 0.01 0.01 0.01 0.00 0.01 0.01 0.02 0.03 0.05 0.06 0.06 0.09 0.14 0.16 0.19 0.21 0.20 0.20 0.27 0.39 0.54 0.78 1.03 1.27 1.36 1.20 1.10 1.03 0.85 0.61 0.46 0.47 0.48 0.46 0.48 0.48 0.47
0.00 0.00 0.00 0.00 0.00 0.01 0.01 0.02 0.02 0.01 0.01 0.01 0.02 0.02 0.02 0.04 0.05 0.08 0.11 0.14 0.17 0.18 0.20 0.21 0.24 0.32 0.44 0.64 0.95 1.26 1.58 1.60 1.42 1.29 1.13 0.94 0.70 0.52 0.50 0.47 0.48 0.49 0.48
0.00 0.00 0.00 0.00 0.00 0.00 0.00 0.01 0.01 0.01 0.02 0.01 0.02 0.01 0.00 0.01 0.02 0.05 0.07 0.12 0.16 0.17 0.19 0.23 0.26 0.23 0.25 0.34 0.55 0.89 1.24 1.56 1.62 1.52 1.41 1.21 1.00 0.76 0.60 0.52 0.49 0.52 0.52
0.00 0.00 0.00 0.00 0.00 0.01 0.01 0.01 0.02 0.02 0.02 0.02 0.02 0.01 0.00 0.00 0.01 0.02 0.07 0.12 0.16 0.22 0.28 0.32 0.37 0.35 0.27 0.26 0.27 0.37 0.67 1.12 1.45 1.60 1.58 1.52 1.28 1.01 0.78 0.62 0.56 0.57 0.56
0.00 0.00 0.00 0.00 0.00 0.00 0.00 0.01 0.02 0.04 0.04 0.03 0.06 0.09 0.03 0.00 0.00 0.01 0.04 0.09 0.17 0.27 0.38 0.42 0.46 0.46 0.41 0.32 0.22 0.21 0.29 0.60 1.09 1.49 1.59 1.58 1.60 1.38 1.01 0.77 0.64 0.63 0.63
0.00 0.00 0.00 0.00 0.00 0.01 0.01 0.01 0.02 0.04 0.06 0.04 0.07 0.21 0.25 0.12 0.03 0.00 0.01 0.04 0.07 0.12 0.18 0.27 0.34 0.38 0.44 0.45 0.36 0.27 0.22 0.31 0.63 1.16 1.58 1.61 1.60 1.67 1.43 1.01 0.75 0.64 0.64
0.00 0.00 0.00 0.00 0.00 0.01 0.01 0.02 0.03 0.05 0.10 0.11 0.08 0.11 0.19 0.22 0.21 0.09 0.01 0.02 0.02 0.04 0.05 0.09 0.15 0.22 0.32 0.42 0.46 0.40 0.31 0.26 0.40 0.70 1.23 1.67 1.66 1.69 1.75 1.41 0.97 0.72 0.64
0.00 0.00 0.00 0.00 0.00 0.01 0.02 0.03 0.04 0.06 0.11 0.16 0.16 0.14 0.13 0.12 0.16 0.22 0.09 0.02 0.03 0.03 0.03 0.04 0.07 0.10 0.15 0.25 0.34 0.41 0.41 0.30 0.35 0.50 0.79 1.34 1.80 1.86 1.91 1.76 1.31 0.90 0.69
0.00 0.00 0.00 0.00 0.01 0.01 0.03 0.04 0.06 0.09 0.11 0.14 0.17 0.20 0.23 0.25 0.18 0.23 0.17 0.05 0.03 0.03 0.04 0.04 0.05 0.06 0.09 0.14 0.22 0.33 0.37 0.35 0.33 0.40 0.49 0.80 1.47 2.01 2.13 1.96 1.62 1.23 0.83
0.01 0.00 0.01 0.01 0.01 0.03 0.04 0.07 0.10 0.11 0.12 0.16 0.19 0.21 0.22 0.21 0.20 0.24 0.25 0.14 0.06 0.02 0.03 0.04 0.05 0.07 0.09 0.11 0.16 0.22 0.27 0.33 0.36 0.39 0.36 0.40 0.74 1.50 2.19 2.34 2.00 1.56 1.17
0.01 0.01 0.01 0.01 0.02 0.04 0.07 0.10 0.12 0.13 0.16 0.18 0.19 0.21 0.22 0.19 0.21 0.25 0.29 0.30 0.21 0.07 0.03 0.04 0.05 0.07 0.09 0.11 0.14 0.17 0.19 0.25 0.32 0.35 0.34 0.33 0.39 0.70 1.42 2.27 2.72 2.32 1.73
0.01 0.01 0.01 0.02 0.04 0.07 0.10 0.12 0.15 0.17 0.20 0.22 0.23 0.24 0.26 0.24 0.25 0.25 0.27 0.32 0.39 0.25 0.07 0.03 0.05 0.06 0.08 0.12 0.16 0.16 0.16 0.19 0.24 0.29 0.30 0.31 0.34 0.41 0.69 1.31 2.21 2.82 2.63
0.01 0.01 0.03 0.05 0.09 0.13 0.16 0.18 0.19 0.20 0.24 0.26 0.28 0.29 0.30 0.31 0.30 0.30 0.31 0.29 0.32 0.33 0.19 0.05 0.05 0.07 0.09 0.11 0.16 0.17 0.18 0.19 0.20 0.23 0.27 0.28 0.30 0.37 0.49 0.75 1.30 2.15 2.69
0.02 0.03 0.06 0.09 0.13 0.19 0.24 0.27 0.28 0.30 0.30 0.28 0.29 0.33 0.34 0.34 0.34 0.32 0.32 0.32 0.29 0.31 0.27 0.08 0.04 0.07 0.12 0.15 0.17 0.17 0.18 0.17 0.16 0.18 0.23 0.27 0.29 0.34 0.44 0.59 0.82 1.35 2.15
0.05 0.07 0.11 0.15 0.19 0.23 0.27 0.35 0.41 0.44 0.46 0.45 0.43 0.42 0.43 0.43 0.45 0.43 0.42 0.37 0.32 0.29 0.29 0.17 0.06 0.06 0.13 0.20 0.25 0.25 0.21 0.17 0.15 0.16 0.19 0.23 0.27 0.30 0.38 0.48 0.62 0.87 1.41
0.09 0.13 0.20 0.28 0.33 0.35 0.36 0.37 0.48 0.62 0.69 0.71 0.69 0.68 0.65 0.62 0.62 0.61 0.59 0.50 0.39 0.30 0.27 0.23 0.13 0.08 0.13 0.22 0.32 0.33 0.29 0.21 0.16 0.17 0.18 0.21 0.24 0.27 0.30 0.38 0.48 0.62 0.86
0.19 0.26 0.33 0.44 0.51 0.60 0.72 0.72 0.71 0.65 0.65 0.73 0.78 0.82 0.87 0.89 0.89 0.85 0.80 0.65 0.48 0.36 0.29 0.25 0.20 0.15 0.14 0.22 0.37 0.42 0.39 0.30 0.21 0.17 0.19 0.20 0.23 0.26 0.26 0.26 0.29 0.42 0.65
0.25 0.33 0.38 0.40 0.42 0.64 1.09 1.25 0.95 0.56 0.43 0.46 0.53 0.58 0.70 0.85 0.95 0.98 0.98 0.82 0.62 0.49 0.39 0.32 0.27 0.22 0.19 0.26 0.40 0.48 0.50 0.47 0.40 0.30 0.23 0.19 0.20 0.21 0.22 0.24 0.30 0.38 0.53
0.18 0.28 0.35 0.32 0.31 0.52 0.97 1.11 0.70 0.35 0.27 0.29 0.33 0.35 0.40 0.55 0.65 0.73 0.83 0.83 0.82 0.78 0.67 0.52 0.41 0.34 0.29 0.31 0.39 0.52 0.55 0.58 0.57 0.47 0.38 0.32 0.28 0.25 0.23 0.22 0.26 0.31 0.41
0.11 0.16 0.18 0.15 0.18 0.38 0.75 0.85 0.48 0.18 0.14 0.16 0.18 0.19 0.20 0.29 0.41 0.45 0.50 0.54 0.65 0.79 0.87 0.81 0.71 0.59 0.45 0.38 0.41 0.47 0.55 0.60 0.61 0.61 0.57 0.56 0.51 0.40 0.34 0.32 0.35 0.32 0.34
0.09 0.11 0.09 0.05 0.06 0.18 0.55 0.72 0.40 0.11 0.09 0.11 0.14 0.12 0.10 0.16 0.30 0.33 0.29 0.34 0.45 0.62 0.83 0.91 0.95 0.85 0.63 0.47 0.44 0.50 0.60 0.62 0.66 0.78 0.78 0.74 0.70 0.57 0.53 0.48 0.45 0.37 0.33
0.07 0.09 0.07 0.03 0.01 0.06 0.38 0.71 0.47 0.12 0.08 0.09 0.11 0.12 0.10 0.09 0.21 0.18 0.14 0.20 0.27 0.42 0.55 0.70 0.75 0.72 0.63 0.57 0.54 0.54 0.61 0.69 0.83 0.98 1.00 0.94 0.91 0.73 0.68 0.70 0.63 0.49 0.38
0.02 0.04 0.04 0.02 0.00 0.02 0.20 0.62 0.62 0.20 0.10 0.07 0.07 0.09 0.14 0.15 0.15 0.12 0.09 0.12 0.20 0.26 0.28 0.34 0.38 0.43 0.45 0.46 0.53 0.62 0.71 0.75 0.88 1.11 1.15 1.00 1.08 0.94 0.91 0.89 0.73 0.51 0.41

GEFSMA_prec_meanprecacc_054.txt.gz
Total_Precipitation_Accumulation
0.11 0.11 0.11 0.12 0.12 0.13 0.14 0.16 0.17 0.16 0.16 0.16 0.17 0.18 0.21 0.23 0.21 0.17 0.14 0.12 0.08 0.08 0.14 0.29 0.52 0.76 0.95 1.05 1.05 0.90 0.82 0.69 0.52 0.42 0.40 0.47 0.51 0.51 0.55 0.65 0.61 0.49 0.41
0.03 0.03 0.03 0.02 0.02 0.02 0.02 0.03 0.04 0.05 0.06 0.08 0.09 0.11 0.13 0.16 0.18 0.19 0.19 0.21 0.16 0.13 0.14 0.20 0.32 0.54 0.82 1.03 1.12 1.09 0.95 0.86 0.69 0.51 0.43 0.43 0.50 0.50 0.50 0.56 0.64 0.59 0.46
0.01 0.01 0.01 0.01 0.00 0.00 0.00 0.00 0.00 0.01 0.01 0.02 0.03 0.05 0.07 0.08 0.12 0.15 0.18 0.22 0.23 0.20 0.17 0.20 0.26 0.40 0.67 0.95 1.11 1.24 1.15 1.00 0.88 0.74 0.55 0.43 0.46 0.51 0.49 0.51 0.58 0.65 0.60
0.00 0.00 0.00 0.00 0.00 0.00 0.01 0.01 0.01 0.00 0.01 0.01 0.02 0.03 0.05 0.06 0.06 0.09 0.14 0.16 0.19 0.21 0.20 0.20 0.27 0.40 0.56 0.81 1.06 1.30 1.40 1.23 1.12 1.05 0.86 0.62 0.47 0.48 0.50 0.48 0.54 0.62 0.69
0.00 0.00 0.00 0.00 0.00 0.01 0.01 0.02 0.02 0.01 0.01 0.01 0.02 0.02 0.02 0.04 0.05 0.08 0.11 0.14 0.17 0.18 0.20 0.21 0.25 0.33 0.46 0.66 0.98 1.30 1.63 1.65 1.46 1.32 1.15 0.96 0.72 0.54 0.52 0.49 0.51 0.59 0.67
0.00 0.00 0.00 0.00 0.00 0.00 0.00 0.01 0.01 0.01 0.02 0.01 0.02 0.01 0.00 0.01 0.02 0.05 0.07 0.12 0.16 0.17 0.19 0.24 0.27 0.24 0.26 0.37 0.59 0.94 1.30 1.62 1.67 1.56 1.44 1.24 1.02 0.78 0.62 0.54 0.52 0.59 0.68
0.00 0.00 0.00 0.00 0.00 0.01 0.01 0.01 0.02 0.02 0.02 0.02 0.02 0.01 0.00 0.00 0.01 0.02 0.07 0.12 0.17 0.23 0.29 0.34 0.40 0.37 0.29 0.28 0.30 0.41 0.72 1.18 1.51 1.65 1.63 1.55 1.31 1.03 0.80 0.64 0.59 0.62 0.68
0.00 0.00 0.00 0.00 0.00 0.00 0.00 0.01 0.02 0.04 0.04 0.03 0.06 0.11 0.05 0.01 0.00 0.01 0.04 0.09 0.17 0.27 0.39 0.44 0.49 0.50 0.44 0.34 0.23 0.22 0.32 0.63 1.13 1.54 1.64 1.62 1.63 1.40 1.03 0.79 0.66 0.67 0.72
0.00 0.00 0.00 0.00 0.00 0.01 0.01 0.01 0.02 0.04 0.06 0.04 0.07 0.24 0.31 0.16 0.04 0.00 0.01 0.04 0.08 0.12 0.20 0.29 0.36 0.40 0.46 0.46 0.37 0.27 0.23 0.32 0.64 1.19 1.62 1.65 1.64 1.70 1.45 1.03 0.77 0.67 0.70
0.00 0.00 0.00 0.00 0.00 0.01 0.01 0.02 0.03 0.05 0.10 0.12 0.08 0.12 0.22 0.26 0.28 0.13 0.01 0.02 0.02 0.04 0.06 0.10 0.16 0.23 0.33 0.43 0.46 0.41 0.32 0.26 0.40 0.71 1.26 1.70 1.70 1.72 1.78 1.43 0.99 0.75 0.69
0.00 0.00 0.00 0.00 0.00 0.01 0.02 0.03 0.04 0.06 0.12 0.17 0.17 0.15 0.14 0.13 0.19 0.27 0.11 0.02 0.03 0.03 0.03 0.05 0.07 0.10 0.16 0.26 0.35 0.42 0.42 0.32 0.36 0.52 0.81 1.37 1.85 1.92 1.95 1.79 1.34 0.93 0.72
0.00 0.00 0.00 0.00 0.01 0.01 0.03 0.04 0.06 0.09 0.11 0.15 0.18 0.20 0.24 0.26 0.20 0.26 0.21 0.07 0.03 0.03 0.04 0.05 0.06 0.07 0.10 0.16 0.23 0.34 0.40 0.38 0.36 0.43 0.52 0.84 1.50 2.05 2.17 2.01 1.66 1.26 0.87
0.01 0.00 0.01 0.01 0.01 0.03 0.04 0.07 0.10 0.11 0.12 0.16 0.19 0.21 0.22 0.22 0.21 0.26 0.29 0.16 0.07 0.02 0.03 0.05 0.06 0.09 0.11 0.13 0.17 0.24 0.29 0.36 0.39 0.42 0.40 0.43 0.76 1.52 2.21 2.36 2.02 1.59 1.22
0.01 0.01 0.01 0.01 0.02 0.04 0.07 0.10 0.12 0.14 0.16 0.18 0.19 0.21 0.22 0.19 0.21 0.26 0.32 0.34 0.25 0.08 0.03 0.04 0.05 0.08 0.11 0.13 0.15 0.19 0.19 0.25 0.33 0.37 0.37 0.36 0.40 0.72 1.43 2.28 2.73 2.33 1.75
0.01 0.01 0.01 0.02 0.04 0.07 0.10 0.12 0.15 0.17 0.20 0.22 0.23 0.24 0.26 0.24 0.25 0.25 0.27 0.35 0.46 0.31 0.09 0.03 0.05 0.06 0.09 0.12 0.17 0.17 0.16 0.19 0.25 0.30 0.31 0.32 0.35 0.43 0.70 1.31 2.21 2.83 2.64
0.01 0.01 0.03 0.05 0.09 0.13 0.16 0.18 0.19 0.20 0.24 0.26 0.28 0.29 0.31 0.31 0.30 0.30 0.31 0.30 0.35 0.39 0.23 0.05 0.06 0.07 0.09 0.12 0.17 0.18 0.18 0.19 0.20 0.24 0.28 0.29 0.31 0.38 0.50 0.76 1.30 2.16 2.70
0.02 0.03 0.06 0.09 0.13 0.19 0.24 0.27 0.28 0.30 0.30 0.28 0.30 0.33 0.35 0.34 0.34 0.32 0.33 0.32 0.30 0.33 0.30 0.08 0.04 0.07 0.13 0.16 0.17 0.17 0.18 0.17 0.16 0.19 0.24 0.28 0.30 0.35 0.45 0.59 0.82 1.35 2.15
0.05 0.07 0.11 0.15 0.19 0.23 0.27 0.35 0.41 0.44 0.46 0.45 0.43 0.43 0.43 0.44 0.45 0.43 0.43 0.38 0.33 0.31 0.32 0.20 0.06 0.06 0.13 0.20 0.26 0.25 0.21 0.18 0.15 0.16 0.19 0.24 0.27 0.31 0.39 0.49 0.63 0.87 1.42
0.09 0.13 0.20 0.28 0.33 0.35 0.36 0.37 0.48 0.62 0.69 0.72 0.71 0.70 0.67 0.64 0.64 0.62 0.60 0.51 0.40 0.32 0.29 0.25 0.14 0.08 0.13 0.22 0.32 0.33 0.29 0.21 0.16 0.17 0.18 0.21 0.25 0.27 0.31 0.39 0.49 0.63 0.87
0.19 0.26 0.33 0.44 0.51 0.60 0.72 0.72 0.71 0.66 0.68 0.76 0.81 0.84 0.89 0.91 0.91 0.86 0.81 0.66 0.50 0.38 0.31 0.27 0.21 0.15 0.14 0.22 0.38 0.43 0.39 0.30 0.21 0.17 0.19 0.20 0.23 0.27 0.26 0.26 0.29 0.42 0.65
0.25 0.33 0.38 0.40 0.42 0.64 1.09 1.26 0.97 0.62 0.51 0.52 0.56 0.60 0.71 0.87 0.97 1.01 1.01 0.85 0.66 0.54 0.42 0.34 0.28 0.23 0.20 0.26 0.40 0.48 0.51 0.47 0.40 0.30 0.23 0.19 0.20 0.21 0.22 0.25 0.30 0.39 0.53
0.18 0.28 0.35 0.32 0.31 0.52 0.97 1.12 0.74 0.42 0.35 0.34 0.35 0.36 0.41 0.56 0.67 0.74 0.85 0.86 0.87 0.83 0.70 0.54 0.42 0.35 0.30 0.31 0.39 0.53 0.56 0.59 0.58 0.48 0.38 0.32 0.28 0.25 0.24 0.22 0.26 0.31 0.41
0.11 0.16 0.18 0.15 0.18 0.38 0.75 0.86 0.52 0.24 0.18 0.17 0.19 0.20 0.21 0.30 0.42 0.45 0.52 0.58 0.67 0.80 0.88 0.82 0.73 0.60 0.46 0.39 0.42 0.49 0.56 0.61 0.62 0.61 0.58 0.56 0.51 0.40 0.34 0.33 0.35 0.32 0.35
0.09 0.11 0.09 0.05 0.06 0.18 0.55 0.73 0.44 0.16 0.10 0.11 0.14 0.13 0.11 0.16 0.31 0.38 0.40 0.39 0.46 0.62 0.83 0.92 0.97 0.87 0.65 0.50 0.49 0.54 0.62 0.63 0.66 0.78 0.80 0.75 0.70 0.57 0.53 0.49 0.45 0.37 0.33
0.07 0.09 0.07 0.03 0.01 0.06 0.39 0.71 0.51 0.16 0.09 0.09 0.12 0.13 0.10 0.10 0.24 0.28 0.20 0.21 0.27 0.42 0.55 0.70 0.76 0.73 0.65 0.60 0.58 0.60 0.64 0.71 0.84 0.98 1.02 0.97 0.92 0.74 0.70 0.71 0.64 0.50 0.39
0.02 0.04 0.04 0.02 0.00 0.02 0.20 0.62 0.66 0.24 0.11 0.08 0.07 0.09 0.14 0.17 0.21 0.17 0.10 0.13 0.22 0.29 0.29 0.34 0.38 0.43 0.45 0.46 0.54 0.65 0.74 0.78 0.89 1.13 1.17 1.04 1.10 0.96 0.94 0.92 0.74 0.53 0.42

GEFSMA_prec_meanprecacc_060.txt.gz
Total_Precipitation_Accumulation
0.11 0.11 0.11 0.12 0.12 0.13 0.14 0.16 0.17 0.16 0.16 0.16 0.17 0.18 0.21 0.23 0.21 0.17 0.14 0.12 0.08 0.08 0.14 0.29 0.53 0.78 0.98 1.08 1.08 0.94 0.86 0.72 0.55 0.46 0.43 0.49 0.52 0.52 0.56 0.66 0.63 0.52 0.48
0.03 0.03 0.03 0.02 0.02 0.02 0.02 0.03 0.04 0.05 0.06 0.08 0.09 0.11 0.13 0.16 0.18 0.19 0.19 0.21 0.16 0.13 0.14 0.20 0.33 0.55 0.85 1.07 1.16 1.13 1.00 0.90 0.73 0.55 0.47 0.46 0.52 0.52 0.52 0.57 0.65 0.62 0.51
0.01 0.01 0.01 0.01 0.00 0.00 0.00 0.00 0.00 0.01 0.01 0.02 0.03 0.05 0.07 0.08 0.12 0.15 0.18 0.22 0.23 0.20 0.17 0.20 0.27 0.41 0.70 0.99 1.16 1.29 1.20 1.05 0.93 0.79 0.59 0.47 0.48 0.53 0.51 0.53 0.60 0.67 0.63
0.00 0.00 0.00 0.00 0.00 0.00 0.01 0.01 0.01 0.00 0.01 0.01 0.02 0.03 0.05 0.06 0.06 0.09 0.14 0.16 0.19 0.21 0.20 0.20 0.28 0.42 0.59 0.85 1.11 1.36 1.46 1.29 1.18 1.11 0.91 0.67 0.51 0.51 0.52 0.50 0.56 0.64 0.72
0.00 0.00 0.00 0.00 0.00 0.01 0.01 0.02 0.02 0.01 0.01 0.01 0.02 0.02 0.02 0.04 0.05 0.08 0.11 0.14 0.17 0.18 0.20 0.21 0.25 0.34 0.47 0.69 1.03 1.37 1.70 1.72 1.53 1.39 1.22 1.02 0.77 0.58 0.55 0.52 0.54 0.62 0.70
0.00 0.00 0.00 0.00 0.00 0.00 0.00 0.01 0.01 0.01 0.02 0.01 0.02 0.01 0.00 0.01 0.02 0.05 0.07 0.12 0.16 0.17 0.19 0.24 0.27 0.25 0.27 0.39 0.63 1.00 1.37 1.70 1.76 1.65 1.53 1.32 1.08 0.83 0.66 0.58 0.55 0.62 0.72
0.00 0.00 0.00 0.00 0.00 0.01 0.01 0.01 0.02 0.02 0.02 0.02 0.02 0.01 0.00 0.00 0.01 0.02 0.07 0.12 0.17 0.23 0.29 0.34 0.40 0.38 0.30 0.29 0.32 0.45 0.79 1.27 1.62 1.77 1.74 1.65 1.40 1.10 0.86 0.69 0.63 0.65 0.72
0.00 0.00 0.00 0.00 0.00 0.00 0.00 0.01 0.02 0.04 0.04 0.03 0.06 0.11 0.05 0.01 0.00 0.01 0.04 0.09 0.17 0.27 0.39 0.44 0.49 0.50 0.46 0.36 0.25 0.25 0.37 0.71 1.24 1.68 1.79 1.76 1.76 1.51 1.12 0.86 0.72 0.72 0.76
0.00 0.00 0.00 0.00 0.00 0.01 0.01 0.01 0.02 0.04 0.06 0.04 0.07 0.24 0.31 0.16 0.05 0.00 0.01 0.04 0.08 0.12 0.20 0.29 0.36 0.41 0.47 0.48 0.39 0.30 0.28 0.41 0.76 1.32 1.78 1.83 1.81 1.85 1.57 1.12 0.84 0.73 0.75
0.00 0.00 0.00 0.00 0.00 0.01 0.01 0.02 0.03 0.05 0.10 0.12 0.08 0.12 0.22 0.27 0.29 0.13 0.01 0.02 0.02 0.04 0.06 0.10 0.16 0.23 0.34 0.44 0.48 0.43 0.36 0.36 0.54 0.86 1.43 1.90 1.90 1.92 1.95 1.56 1.09 0.82 0.75
0.00 0.00 0.00 0.00 0.00 0.01 0.02 0.03 0.04 0.06 0.12 0.17 0.17 0.15 0.14 0.13 0.19 0.28 0.12 0.02 0.03 0.03 0.03 0.05 0.07 0.10 0.16 0.27 0.36 0.43 0.45 0.39 0.47 0.65 0.96 1.55 2.06 2.15 2.18 1.98 1.49 1.04 0.80
0.00 0.00 0.00 0.00 0.01 0.01 0.03 0.04 0.06 0.09 0.11 0.15 0.18 0.20 0.24 0.26 0.20 0.26 0.22 0.07 0.03 0.03 0.04 0.05 0.06 0.07 0.10 0.16 0.23 0.35 0.43 0.44 0.43 0.53 0.63 0.97 1.67 2.25 2.40 2.23 1.85 1.40 0.98
0.01 0.00 0.01 0.01 0.01 0.03 0.04 0.07 0.10 0.11 0.12 0.16 0.19 0.21 0.22 0.22 0.21 0.26 0.29 0.17 0.07 0.02 0.03 0.05 0.06 0.09 0.11 0.14 0.18 0.25 0.32 0.39 0.44 0.48 0.47 0.52 0.87 1.66 2.38 2.54 2.21 1.76 1.35
0.01 0.01 0.01 0.01 0.02 0.04 0.07 0.10 0.12 0.14 0.16 0.18 0.19 0.21 0.22 0.19 0.21 0.26 0.32 0.36 0.27 0.08 0.03 0.04 0.05 0.08 0.11 0.13 0.15 0.19 0.20 0.26 0.35 0.40 0.42 0.42 0.47 0.80 1.54 2.41 2.87 2.47 1.88
0.01 0.01 0.01 0.02 0.04 0.07 0.10 0.12 0.15 0.17 0.20 0.22 0.23 0.24 0.26 0.24 0.25 0.25 0.28 0.38 0.51 0.35 0.09 0.03 0.05 0.06 0.09 0.12 0.17 0.17 0.17 0.20 0.26 0.32 0.35 0.36 0.40 0.47 0.76 1.40 2.31 2.92 2.74
0.01 0.01 0.03 0.05 0.09 0.13 0.16 0.18 0.19 0.20 0.24 0.26 0.28 0.29 0.31 0.31 0.30 0.30 0.32 0.32 0.38 0.44 0.26 0.05 0.06 0.07 0.09 0.12 0.17 0.18 0.18 0.20 0.21 0.26 0.30 0.32 0.34 0.41 0.54 0.81 1.36 2.22 2.76
0.02 0.03 0.06 0.09 0.13 0.19 0.24 0.27 0.28 0.30 0.30 0.28 0.30 0.34 0.35 0.34 0.35 0.33 0.34 0.34 0.33 0.37 0.35 0.09 0.04 0.07 0.13 0.16 0.17 0.17 0.19 0.18 0.16 0.19 0.25 0.30 0.32 0.37 0.47 0.62 0.85 1.39 2.19
0.05 0.07 0.11 0.15 0.19 0.23 0.27 0.35 0.42 0.44 0.46 0.45 0.43 0.43 0.44 0.44 0.46 0.44 0.44 0.40 0.35 0.32 0.35 0.22 0.07 0.06 0.13 0.20 0.26 0.25 0.21 0.18 0.15 0.16 0.20 0.25 0.29 0.33 0.41 0.51 0.64 0.90 1.44
0.09 0.14 0.21 0.29 0.33 0.35 0.36 0.38 0.49 0.62 0.69 0.72 0.71 0.70 0.68 0.65 0.65 0.63 0.61 0.53 0.42 0.33 0.31 0.27 0.15 0.09 0.13 0.23 0.33 0.34 0.29 0.21 0.16 0.17 0.19 0.22 0.26 0.29 0.33 0.40 0.51 0.64 0.88
0.19 0.26 0.34 0.44 0.52 0.60 0.72 0.72 0.71 0.66 0.68 0.76 0.82 0.85 0.90 0.92 0.92 0.88 0.84 0.68 0.52 0.41 0.34 0.31 0.23 0.16 0.14 0.22 0.38 0.43 0.39 0.31 0.21 0.17 0.19 0.20 0.24 0.28 0.28 0.28 0.31 0.43 0.66
0.26 0.34 0.38 0.40 0.43 0.65 1.10 1.26 0.97 0.62 0.52 0.54 0.57 0.61 0.72 0.87 0.99 1.04 1.05 0.90 0.73 0.62 0.49 0.40 0.32 0.25 0.21 0.26 0.41 0.48 0.51 0.47 0.40 0.31 0.23 0.19 0.20 0.22 0.23 0.26 0.31 0.40 0.54
0.19 0.29 0.35 0.32 0.31 0.52 0.98 1.12 0.74 0.42 0.36 0.35 0.36 0.37 0.41 0.56 0.67 0.76 0.87 0.89 0.92 0.92 0.80 0.61 0.47 0.37 0.31 0.32 0.40 0.54 0.57 0.60 0.58 0.48 0.39 0.32 0.28 0.26 0.24 0.23 0.27 0.32 0.42
0.12 0.16 0.19 0.16 0.19 0.38 0.75 0.86 0.53 0.25 0.19 0.18 0.19 0.20 0.21 0.30 0.42 0.46 0.53 0.60 0.70 0.82 0.91 0.85 0.76 0.61 0.46 0.39 0.43 0.50 0.57 0.63 0.63 0.61 0.59 0.56 0.51 0.40 0.34 0.33 0.35 0.33 0.35
0.10 0.12 0.10 0.06 0.06 0.19 0.55 0.73 0.44 0.17 0.11 0.11 0.15 0.13 0.11 0.16 0.31 0.40 0.49 0.47 0.48 0.63 0.83 0.93 0.99 0.89 0.67 0.53 0.55 0.60 0.66 0.65 0.67 0.78 0.81 0.77 0.70 0.57 0.53 0.49 0.46 0.38 0.34
0.08 0.10 0.08 0.04 0.02 0.07 0.39 0.71 0.51 0.16 0.10 0.09 0.12 0.13 0.10 0.10 0.25 0.33 0.29 0.25 0.28 0.42 0.55 0.71 0.78 0.77 0.69 0.65 0.66 0.69 0.69 0.73 0.85 0.99 1.03 0.98 0.93 0.74 0.70 0.71 0.64 0.50 0.39
0.03 0.05 0.05 0.03 0.01 0.02 0.20 0.62 0.66 0.24 0.12 0.08 0.07 0.09 0.14 0.17 0.23 0.22 0.15 0.15 0.23 0.31 0.31 0.34 0.39 0.43 0.46 0.46 0.56 0.69 0.78 0.81 0.91 1.13 1.18 1.06 1.11 0.98 0.95 0.92 0.75 0.53 0.42

GEFSMA_prec_meanprecacc_066.txt.gz
Total_Precipitation_Accumulation
0.11 0.11 0.11 0.12 0.12 0.13 0.14 0.16 0.17 0.16 0.16 0.16 0.17 0.18 0.21 0.23 0.21 0.17 0.14 0.12 0.08 0.08 0.14 0.29 0.54 0.79 0.99 1.10 1.10 0.96 0.88 0.75 0.58 0.48 0.45 0.52 0.54 0.54 0.57 0.67 0.64 0.53 0.49
0.03 0.03 0.03 0.02 0.02 0.02 0.02 0.03 0.04 0.05 0.06 0.08 0.09 0.11 0.13 0.16 0.18 0.19 0.19 0.21 0.16 0.13 0.14 0.20 0.33 0.56 0.86 1.08 1.18 1.16 1.02 0.93 0.76 0.58 0.50 0.49 0.54 0.54 0.54 0.59 0.67 0.63 0.52
0.01 0.01 0.01 0.01 0.00 0.00 0.00 0.00 0.00 0.01 0.01 0.02 0.03 0.05 0.07 0.08 0.12 0.15 0.18 0.22 0.23 0.20 0.17 0.20 0.27 0.42 0.71 1.00 1.18 1.32 1.23 1.08 0.96 0.82 0.62 0.50 0.52 0.56 0.54 0.55 0.62 0.69 0.65
0.00 0.00 0.00 0.00 0.00 0.00 0.01 0.01 0.01 0.00 0.01 0.01 0.02 0.03 0.05 0.06 0.06 0.09 0.14 0.16 0.19 0.21 0.20 0.20 0.28 0.42 0.59 0.85 1.12 1.38 1.48 1.32 1.21 1.15 0.95 0.71 0.55 0.56 0.56 0.54 0.59 0.67 0.74
0.00 0.00 0.00 0.00 0.00 0.01 0.01 0.02 0.02 0.01 0.01 0.01 0.02 0.02 0.02 0.04 0.05 0.08 0.11 0.14 0.17 0.18 0.20 0.21 0.25 0.34 0.47 0.70 1.04 1.38 1.72 1.75 1.56 1.43 1.26 1.06 0.82 0.63 0.60 0.56 0.58 0.66 0.73
0.00 0.00 0.00 0.00 0.00 0.00 0.00 0.01 0.01 0.01 0.02 0.01 0.02 0.01 0.00 0.01 0.02 0.05 0.07 0.12 0.16 0.17 0.19 0.24 0.27 0.25 0.27 0.39 0.63 1.01 1.38 1.72 1.79 1.69 1.58 1.38 1.15 0.90 0.74 0.65 0.62 0.68 0.77
0.00 0.00 0.00 0.00 0.00 0.01 0.01 0.01 0.02 0.02 0.02 0.02 0.02 0.01 0.00 0.00 0.01 0.02 0.07 0.12 0.17 0.23 0.29 0.34 0.40 0.38 0.30 0.29 0.32 0.46 0.80 1.29 1.65 1.82 1.80 1.73 1.49 1.20 0.97 0.79 0.72 0.74 0.79
0.00 0.00 0.00 0.00 0.00 0.00 0.00 0.01 0.02 0.04 0.04 0.03 0.06 0.11 0.05 0.01 0.00 0.01 0.04 0.09 0.17 0.27 0.39 0.44 0.49 0.50 0.46 0.36 0.25 0.25 0.37 0.73 1.27 1.74 1.87 1.87 1.89 1.65 1.26 1.00 0.85 0.83 0.86
0.00 0.00 0.00 0.00 0.00 0.01 0.01 0.01 0.02 0.04 0.06 0.04 0.07 0.24 0.31 0.16 0.05 0.00 0.01 0.04 0.08 0.12 0.20 0.29 0.36 0.41 0.47 0.48 0.39 0.30 0.28 0.43 0.79 1.39 1.88 1.97 1.97 2.03 1.76 1.30 1.01 0.88 0.88
0.00 0.00 0.00 0.00 0.00 0.01 0.01 0.02 0.03 0.05 0.10 0.12 0.08 0.12 0.22 0.27 0.29 0.13 0.01 0.02 0.02 0.04 0.06 0.10 0.16 0.23 0.34 0.44 0.48 0.43 0.36 0.37 0.57 0.93 1.55 2.06 2.09 2.13 2.18 1.80 1.33 1.04 0.93
0.00 0.00 0.00 0.00 0.00 0.01 0.02 0.03 0.04 0.06 0.12 0.17 0.17 0.15 0.14 0.13 0.19 0.28 0.12 0.02 0.03 0.03 0.03 0.05 0.07 0.10 0.16 0.27 0.36 0.43 0.45 0.40 0.49 0.70 1.05 1.68 2.24 2.36 2.41 2.24 1.76 1.30 1.03
0.00 0.00 0.00 0.00 0.01 0.01 0.03 0.04 0.06 0.09 0.11 0.15 0.18 0.20 0.24 0.26 0.20 0.26 0.22 0.07 0.03 0.03 0.04 0.05 0.06 0.07 0.10 0.16 0.23 0.35 0.43 0.44 0.45 0.56 0.68 1.04 1.77 2.40 2.59 2.45 2.11 1.67 1.25
0.01 0.00 0.01 0.01 0.01 0.03 0.04 0.07 0.10 0.11 0.12 0.16 0.19 0.21 0.22 0.22 0.21 0.26 0.29 0.17 0.07 0.02 0.03 0.05 0.06 0.09 0.11 0.14 0.18 0.25 0.32 0.39 0.45 0.50 0.50 0.56 0.92 1.74 2.50 2.71 2.43 2.01 1.63
0.01 0.01 0.01 0.01 0.02 0.04 0.07 0.10 0.13 0.14 0.16 0.19 0.19 0.21 0.22 0.19 0.21 0.26 0.32 0.36 0.28 0.09 0.03 0.04 0.05 0.08 0.11 0.13 0.15 0.19 0.20 0.26 0.35 0.41 0.43 0.45 0.51 0.85 1.62 2.52 3.02 2.67 2.12
0.01 0.01 0.01 0.02 0.04 0.07 0.10 0.12 0.15 0.17 0.20 0.22 0.23 0.24 0.26 0.24 0.25 0.25 0.28 0.38 0.53 0.37 0.10 0.03 0.05 0.06 0.09 0.12 0.17 0.17 0.17 0.20 0.27 0.34 0.36 0.39 0.43 0.51 0.82 1.47 2.41 3.07 2.93
0.01 0.01 0.03 0.05 0.09 0.14 0.17 0.18 0.19 0.20 0.24 0.26 0.28 0.30 0.31 0.31 0.30 0.30 0.32 0.32 0.40 0.48 0.29 0.05 0.06 0.07 0.09 0.12 0.17 0.18 0.18 0.20 0.22 0.27 0.31 0.33 0.36 0.44 0.57 0.86 1.43 2.33 2.90
0.02 0.03 0.06 0.09 0.14 0.20 0.24 0.27 0.28 0.30 0.31 0.28 0.30 0.34 0.35 0.34 0.35 0.33 0.34 0.35 0.34 0.39 0.38 0.10 0.04 0.07 0.13 0.16 0.17 0.17 0.19 0.18 0.16 0.19 0.26 0.31 0.34 0.40 0.50 0.65 0.90 1.46 2.30
0.05 0.07 0.11 0.16 0.20 0.24 0.27 0.36 0.42 0.44 0.47 0.45 0.44 0.43 0.44 0.44 0.46 0.44 0.45 0.40 0.36 0.34 0.38 0.24 0.07 0.06 0.13 0.20 0.26 0.25 0.21 0.18 0.15 0.16 0.20 0.26 0.31 0.35 0.43 0.54 0.68 0.94 1.50
0.09 0.14 0.21 0.29 0.34 0.36 0.37 0.38 0.49 0.62 0.70 0.72 0.71 0.71 0.68 0.65 0.65 0.63 0.61 0.53 0.42 0.34 0.33 0.30 0.16 0.09 0.13 0.23 0.33 0.34 0.29 0.21 0.16 0.17 0.19 0.22 0.27 0.30 0.35 0.42 0.53 0.67 0.92
0.19 0.27 0.34 0.45 0.52 0.60 0.73 0.73 0.72 0.67 0.68 0.77 0.82 0.85 0.90 0.93 0.92 0.88 0.85 0.69 0.54 0.44 0.36 0.34 0.26 0.17 0.15 0.22 0.39 0.44 0.40 0.31 0.22 0.17 0.19 0.20 0.24 0.29 0.29 0.30 0.33 0.46 0.69
0.26 0.34 0.39 0.40 0.43 0.65 1.11 1.27 0.98 0.62 0.52 0.54 0.57 0.61 0.72 0.88 1.00 1.06 1.09 0.94 0.78 0.68 0.55 0.45 0.36 0.28 0.23 0.28 0.43 0.50 0.53 0.48 0.40 0.31 0.24 0.19 0.20 0.22 0.23 0.27 0.33 0.41 0.55
0.19 0.29 0.35 0.33 0.32 0.53 0.98 1.13 0.75 0.43 0.36 0.35 0.36 0.37 0.41 0.57 0.68 0.77 0.88 0.91 0.95 0.97 0.87 0.68 0.52 0.40 0.32 0.33 0.41 0.55 0.59 0.61 0.59 0.48 0.39 0.33 0.28 0.26 0.24 0.23 0.27 0.33 0.43
0.12 0.17 0.19 0.17 0.20 0.39 0.76 0.87 0.54 0.26 0.19 0.18 0.19 0.20 0.21 0.30 0.42 0.46 0.53 0.61 0.71 0.84 0.94 0.90 0.80 0.63 0.47 0.40 0.45 0.52 0.59 0.65 0.64 0.62 0.60 0.58 0.51 0.40 0.34 0.33 0.35 0.33 0.36
0.10 0.12 0.11 0.07 0.07 0.20 0.57 0.75 0.46 0.18 0.11 0.12 0.15 0.13 0.11 0.16 0.31 0.40 0.49 0.49 0.50 0.64 0.84 0.94 1.01 0.91 0.70 0.57 0.62 0.68 0.72 0.69 0.68 0.79 0.82 0.79 0.71 0.58 0.53 0.49 0.46 0.38 0.34
0.08 0.10 0.09 0.05 0.03 0.08 0.40 0.73 0.53 0.18 0.10 0.10 0.12 0.13 0.10 0.10 0.25 0.34 0.31 0.29 0.30 0.43 0.56 0.72 0.80 0.78 0.72 0.67 0.70 0.76 0.74 0.76 0.86 0.99 1.03 1.01 0.94 0.75 0.70 0.71 0.64 0.51 0.39
0.04 0.05 0.06 0.04 0.02 0.03 0.22 0.64 0.68 0.25 0.13 0.09 0.08 0.09 0.15 0.17 0.24 0.23 0.17 0.18 0.25 0.32 0.32 0.35 0.39 0.44 0.46 0.47 0.56 0.72 0.83 0.85 0.93 1.15 1.19 1.08 1.13 1.00 0.97 0.93 0.76 0.54 0.43

GEFSMA_prec_meanprecacc_072.txt.gz
Total_Precipitation_Accumulation
0.11 0.11 0.11 0.12 0.12 0.13 0.14 0.16 0.17 0.16 0.16 0.16 0.17 0.18 0.21 0.23 0.21 0.17 0.14 0.12 0.08 0.08 0.14 0.29 0.54 0.79 0.99 1.10 1.11 0.97 0.89 0.76 0.59 0.49 0.46 0.53 0.56 0.55 0.58 0.68 0.65 0.53 0.49
0.03 0.03 0.03 0.02 0.02 0.02 0.02 0.03 0.04 0.05 0.06 0.08 0.09 0.11 0.13 0.16 0.18 0.19 0.19 0.21 0.16 0.13 0.14 0.20 0.33 0.56 0.86 1.09 1.19 1.16 1.03 0.94 0.77 0.59 0.51 0.51 0.56 0.56 0.55 0.60 0.68 0.64 0.53
0.01 0.01 0.01 0.01 0.00 0.00 0.00 0.00 0.00 0.01 0.01 0.02 0.03 0.05 0.07 0.08 0.12 0.15 0.18 0.22 0.23 0.20 0.17 0.20 0.27 0.42 0.71 1.01 1.19 1.32 1.23 1.09 0.97 0.83 0.64 0.52 0.53 0.57 0.55 0.57 0.63 0.70 0.66
0.00 0.00 0.00 0.00 0.00 0.00 0.01 0.01 0.01 0.00 0.01 0.01 0.02 0.03 0.05 0.06 0.06 0.09 0.14 0.16 0.19 0.21 0.20 0.20 0.28 0.42 0.59 0.85 1.12 1.38 1.48 1.32 1.22 1.15 0.96 0.72 0.56 0.57 0.58 0.56 0.61 0.68 0.76
0.00 0.00 0.00 0.00 0.00 0.01 0.01 0.02 0.02 0.01 0.01 0.01 0.02 0.02 0.02 0.04 0.05 0.08 0.11 0.14 0.17 0.18 0.20 0.21 0.25 0.34 0.47 0.70 1.04 1.38 1.72 1.75 1.57 1.44 1.27 1.08 0.83 0.65 0.62 0.58 0.60 0.68 0.76
0.00 0.00 0.00 0.00 0.00 0.00 0.00 0.01 0.01 0.01 0.02 0.01 0.02 0.01 0.00 0.01 0.02 0.05 0.07 0.12 0.16 0.17 0.19 0.24 0.27 0.25 0.27 0.39 0.63 1.01 1.38 1.72 1.79 1.70 1.59 1.39 1.17 0.92 0.76 0.67 0.64 0.70 0.80
0.00 0.00 0.00 0.00 0.00 0.01 0.01 0.01 0.02 0.02 0.02 0.02 0.02 0.01 0.00 0.00 0.01 0.02 0.07 0.12 0.17 0.23 0.29 0.34 0.40 0.38 0.30 0.29 0.32 0.46 0.80 1.29 1.66 1.82 1.82 1.75 1.51 1.23 1.00 0.82 0.76 0.77 0.83
0.00 0.00 0.00 0.00 0.00 0.00 0.00 0.01 0.02 0.04 0.04 0.03 0.06 0.11 0.05 0.01 0.00 0.01 0.04 0.09 0.17 0.27 0.39 0.44 0.49 0.50 0.46 0.36 0.25 0.25 0.37 0.73 1.27 1.74 1.89 1.89 1.91 1.68 1.30 1.03 0.89 0.87 0.91
0.00 0.00 0.00 0.00 0.00 0.01 0.01 0.01 0.02 0.04 0.06 0.04 0.07 0.24 0.31 0.16 0.05 0.00 0.01 0.04 0.08 0.12 0.20 0.29 0.36 0.41 0.47 0.48 0.39 0.30 0.28 0.43 0.79 1.39 1.90 1.99 2.00 2.07 1.80 1.35 1.06 0.94 0.95
0.00 0.00 0.00 0.00 0.00 0.01 0.01 0.02 0.03 0.05 0.10 0.12 0.08 0.12 0.22 0.27 0.29 0.13 0.01 0.02 0.02 0.04 0.06 0.10 0.16 0.23 0.34 0.44 0.48 0.43 0.36 0.37 0.57 0.94 1.57 2.09 2.12 2.18 2.24 1.86 1.40 1.11 1.01
0.00 0.00 0.00 0.00 0.00 0.01 0.02 0.03 0.04 0.06 0.12 0.17 0.17 0.15 0.14 0.13 0.19 0.28 0.12 0.02 0.03 0.03 0.03 0.05 0.07 0.10 0.16 0.27 0.36 0.43 0.45 0.40 0.50 0.71 1.06 1.70 2.27 2.41 2.47 2.30 1.82 1.37 1.10
0.00 0.00 0.00 0.00 0.01 0.01 0.03 0.04 0.06 0.09 0.11 0.15 0.18 0.20 0.24 0.26 0.20 0.26 0.22 0.07 0.03 0.03 0.04 0.05 0.06 0.07 0.10 0.16 0.23 0.35 0.43 0.44 0.45 0.56 0.69 1.06 1.79 2.43 2.63 2.49 2.15 1.72 1.31
0.01 0.00 0.01 0.01 0.01 0.03 0.04 0.07 0.10 0.11 0.12 0.16 0.19 0.21 0.22 0.22 0.21 0.26 0.29 0.17 0.07 0.02 0.03 0.05 0.06 0.09 0.11 0.14 0.18 0.25 0.32 0.39 0.45 0.50 0.50 0.57 0.94 1.76 2.52 2.74 2.46 2.05 1.68
0.01 0.01 0.01 0.01 0.02 0.04 0.07 0.10 0.13 0.14 0.16 0.19 0.19 0.21 0.22 0.19 0.21 0.26 0.32 0.36 0.28 0.09 0.03 0.04 0.05 0.08 0.11 0.13 0.15 0.19 0.20 0.26 0.35 0.41 0.44 0.45 0.52 0.87 1.64 2.55 3.06 2.71 2.16
0.01 0.01 0.01 0.02 0.04 0.07 0.10 0.12 0.15 0.17 0.20 0.22 0.23 0.24 0.26 0.24 0.25 0.26 0.28 0.38 0.53 0.37 0.10 0.03 0.05 0.06 0.09 0.12 0.17 0.17 0.17 0.20 0.27 0.34 0.37 0.40 0.44 0.53 0.84 1.50 2.45 3.11 2.97
0.01 0.01 0.03 0.05 0.09 0.14 0.17 0.18 0.19 0.20 0.24 0.26 0.28 0.30 0.31 0.31 0.31 0.30 0.32 0.32 0.40 0.48 0.29 0.05 0.06 0.07 0.09 0.12 0.17 0.18 0.18 0.20 0.22 0.27 0.32 0.34 0.37 0.46 0.60 0.89 1.46 2.36 2.94
0.02 0.03 0.06 0.09 0.14 0.20 0.24 0.27 0.28 0.30 0.31 0.28 0.30 0.34 0.35 0.35 0.35 0.33 0.34 0.35 0.34 0.40 0.39 0.10 0.04 0.07 0.13 0.16 0.17 0.17 0.19 0.18 0.16 0.19 0.26 0.32 0.35 0.42 0.52 0.68 0.93 1.50 2.34
0.05 0.07 0.11 0.16 0.20 0.24 0.27 0.36 0.42 0.44 0.47 0.46 0.44 0.43 0.44 0.45 0.47 0.45 0.45 0.41 0.36 0.34 0.39 0.24 0.07 0.06 0.13 0.20 0.26 0.25 0.21 0.18 0.15 0.16 0.20 0.27 0.32 0.37 0.46 0.56 0.71 0.98 1.55
0.09 0.14 0.21 0.29 0.34 0.36 0.37 0.38 0.49 0.63 0.70 0.72 0.72 0.71 0.68 0.65 0.66 0.64 0.62 0.54 0.43 0.34 0.33 0.30 0.16 0.09 0.13 0.23 0.33 0.34 0.29 0.22 0.16 0.17 0.19 0.22 0.27 0.31 0.36 0.45 0.56 0.71 0.96
0.19 0.27 0.34 0.45 0.52 0.60 0.73 0.73 0.72 0.67 0.68 0.77 0.82 0.85 0.91 0.93 0.93 0.89 0.86 0.70 0.54 0.44 0.37 0.35 0.26 0.17 0.15 0.23 0.40 0.45 0.40 0.31 0.22 0.17 0.19 0.20 0.25 0.30 0.30 0.32 0.35 0.48 0.72
0.26 0.34 0.39 0.40 0.43 0.65 1.11 1.27 0.98 0.63 0.52 0.54 0.58 0.61 0.72 0.88 1.01 1.07 1.10 0.95 0.79 0.70 0.56 0.47 0.37 0.29 0.23 0.29 0.44 0.51 0.53 0.48 0.40 0.31 0.24 0.19 0.20 0.22 0.23 0.27 0.33 0.42 0.56
0.19 0.29 0.35 0.33 0.32 0.53 0.98 1.13 0.75 0.43 0.37 0.36 0.37 0.37 0.42 0.58 0.69 0.78 0.90 0.93 0.97 1.00 0.90 0.71 0.54 0.41 0.33 0.34 0.42 0.56 0.59 0.62 0.60 0.48 0.40 0.33 0.28 0.26 0.24 0.23 0.28 0.34 0.45
0.12 0.17 0.19 0.17 0.20 0.39 0.76 0.87 0.54 0.26 0.20 0.19 0.20 0.21 0.22 0.31 0.43 0.47 0.55 0.63 0.73 0.86 0.96 0.92 0.83 0.64 0.48 0.41 0.45 0.54 0.60 0.67 0.66 0.62 0.61 0.59 0.52 0.41 0.34 0.33 0.36 0.35 0.39
0.10 0.12 0.11 0.07 0.07 0.20 0.57 0.75 0.46 0.19 0.12 0.12 0.15 0.13 0.12 0.17 0.32 0.41 0.50 0.50 0.51 0.65 0.85 0.95 1.02 0.92 0.70 0.58 0.64 0.71 0.77 0.72 0.70 0.79 0.83 0.81 0.71 0.58 0.53 0.49 0.46 0.39 0.36
0.08 0.10 0.09 0.05 0.03 0.08 0.40 0.73 0.53 0.20 0.12 0.11 0.12 0.13 0.11 0.10 0.25 0.35 0.33 0.30 0.30 0.43 0.56 0.73 0.81 0.80 0.73 0.70 0.73 0.80 0.79 0.79 0.88 0.99 1.04 1.02 0.94 0.76 0.71 0.71 0.65 0.52 0.41
0.04 0.05 0.06 0.04 0.02 0.03 0.22 0.64 0.68 0.27 0.15 0.10 0.09 0.10 0.15 0.18 0.24 0.24 0.20 0.20 0.26 0.32 0.32 0.36 0.40 0.44 0.47 0.47 0.57 0.73 0.84 0.87 0.95 1.16 1.19 1.10 1.14 1.02 0.99 0.93 0.76 0.55 0.44

GEFSMA_prec_meanprecacc_078.txt.gz
Total_Precipitation_Accumulation
0.11 0.11 0.11 0.12 0.12 0.13 0.14 0.16 0.17 0.16 0.16 0.16 0.17 0.18 0.21 0.23 0.21 0.17 0.14 0.12 0.08 0.08 0.14 0.29 0.54 0.79 0.99 1.10 1.11 0.97 0.89 0.76 0.59 0.50 0.47 0.54 0.57 0.56 0.59 0.68 0.65 0.53 0.49
0.03 0.03 0.03 0.02 0.02 0.02 0.02 0.03 0.04 0.05 0.06 0.08 0.09 0.11 0.13 0.16 0.18 0.19 0.19 0.21 0.16 0.13 0.14 0.20 0.33 0.56 0.86 1.09 1.19 1.16 1.03 0.94 0.77 0.60 0.51 0.51 0.57 0.56 0.56 0.61 0.68 0.64 0.53
0.01 0.01 0.01 0.01 0.00 0.00 0.00 0.00 0.00 0.01 0.01 0.02 0.03 0.05 0.07 0.08 0.12 0.15 0.18 0.22 0.23 0.20 0.17 0.20 0.27 0.42 0.71 1.01 1.19 1.32 1.23 1.09 0.98 0.84 0.64 0.52 0.54 0.58 0.56 0.58 0.64 0.71 0.67
0.00 0.00 0.00 0.00 0.00 0.00 0.01 0.01 0.01 0.00 0.01 0.01 0.02 0.03 0.05 0.06 0.06 0.09 0.14 0.16 0.19 0.21 0.20 0.20 0.28 0.42 0.59 0.85 1.12 1.38 1.48 1.32 1.22 1.16 0.97 0.73 0.57 0.58 0.59 0.57 0.62 0.70 0.77
0.00 0.00 0.00 0.00 0.00 0.01 0.01 0.02 0.02 0.01 0.01 0.01 0.02 0.02 0.02 0.04 0.05 0.08 0.11 0.14 0.17 0.18 0.20 0.21 0.25 0.34 0.47 0.70 1.04 1.38 1.72 1.75 1.57 1.44 1.28 1.08 0.84 0.66 0.63 0.60 0.62 0.69 0.77
0.00 0.00 0.00 0.00 0.00 0.00 0.00 0.01 0.01 0.01 0.02 0.01 0.02 0.01 0.00 0.01 0.02 0.05 0.07 0.12 0.16 0.17 0.19 0.24 0.27 0.25 0.27 0.39 0.63 1.01 1.38 1.72 1.80 1.70 1.59 1.40 1.17 0.93 0.77 0.69 0.66 0.72 0.82
0.00 0.00 0.00 0.00 0.00 0.01 0.01 0.01 0.02 0.02 0.02 0.02 0.02 0.01 0.00 0.00 0.01 0.02 0.07 0.12 0.17 0.23 0.29 0.34 0.40 0.38 0.30 0.29 0.32 0.46 0.80 1.29 1.66 1.83 1.82 1.76 1.52 1.24 1.01 0.84 0.78 0.80 0.85
0.00 0.00 0.00 0.00 0.00 0.00 0.00 0.01 0.02 0.04 0.04 0.03 0.06 0.11 0.05 0.01 0.00 0.01 0.04 0.09 0.17 0.27 0.39 0.44 0.49 0.50 0.46 0.36 0.25 0.25 0.37 0.73 1.27 1.74 1.89 1.90 1.92 1.69 1.32 1.06 0.91 0.90 0.94
0.00 0.00 0.00 0.00 0.00 0.01 0.01 0.01 0.02 0.04 0.06 0.04 0.07 0.24 0.31 0.16 0.05 0.00 0.01 0.04 0.08 0.12 0.20 0.29 0.36 0.41 0.47 0.48 0.39 0.30 0.28 0.43 0.79 1.40 1.90 2.00 2.02 2.09 1.83 1.38 1.10 0.98 0.99
0.00 0.00 0.00 0.00 0.00 0.01 0.01 0.02 0.03 0.05 0.10 0.12 0.08 0.12 0.22 0.27 0.29 0.13 0.01 0.02 0.02 0.04 0.06 0.10 0.16 0.23 0.34 0.44 0.48 0.43 0.36 0.37 0.57 0.94 1.57 2.10 2.14 2.20 2.27 1.90 1.44 1.15 1.05
0.00 0.00 0.00 0.00 0.00 0.01 0.02 0.03 0.04 0.06 0.12 0.17 0.17 0.15 0.14 0.13 0.19 0.28 0.12 0.02 0.03 0.03 0.03 0.05 0.07 0.10 0.16 0.27 0.36 0.43 0.45 0.40 0.50 0.71 1.06 1.71 2.28 2.43 2.50 2.34 1.85 1.40 1.14
0.00 0.00 0.00 0.00 0.01 0.01 0.03 0.04 0.06 0.09 0.11 0.15 0.18 0.20 0.24 0.26 0.20 0.26 0.22 0.07 0.03 0.03 0.04 0.05 0.06 0.07 0.10 0.16 0.23 0.35 0.43 0.44 0.45 0.56 0.69 1.06 1.80 2.45 2.64 2.52 2.18 1.75 1.34
0.01 0.00 0.01 0.01 0.01 0.03 0.04 0.07 0.10 0.11 0.12 0.16 0.19 0.21 0.22 0.22 0.21 0.26 0.29 0.17 0.07 0.02 0.03 0.05 0.06 0.09 0.11 0.14 0.18 0.25 0.32 0.39 0.45 0.50 0.51 0.57 0.94 1.77 2.54 2.76 2.48 2.08 1.70
0.01 0.01 0.01 0.01 0.02 0.04 0.07 0.10 0.13 0.14 0.16 0.19 0.19 0.21 0.22 0.19 0.21 0.26 0.32 0.36 0.28 0.09 0.03 0.04 0.05 0.08 0.11 0.13 0.15 0.19 0.20 0.26 0.35 0.41 0.44 0.45 0.53 0.87 1.65 2.56 3.07 2.73 2.18
0.01 0.01 0.01 0.02 0.04 0.07 0.10 0.12 0.15 0.17 0.20 0.22 0.23 0.24 0.26 0.24 0.25 0.26 0.28 0.38 0.53 0.37 0.10 0.03 0.05 0.06 0.09 0.13 0.17 0.17 0.17 0.20 0.27 0.34 0.37 0.40 0.45 0.54 0.85 1.51 2.46 3.12 2.98
0.01 0.01 0.03 0.05 0.09 0.14 0.17 0.18 0.19 0.20 0.24 0.26 0.28 0.30 0.31 0.31 0.31 0.30 0.32 0.32 0.40 0.48 0.29 0.05 0.06 0.07 0.09 0.12 0.17 0.18 0.18 0.20 0.22 0.27 0.32 0.34 0.38 0.46 0.60 0.90 1.48 2.38 2.96
0.02 0.03 0.06 0.09 0.14 0.20 0.24 0.27 0.28 0.30 0.31 0.28 0.30 0.34 0.35 0.35 0.35 0.33 0.34 0.35 0.34 0.40 0.39 0.10 0.04 0.07 0.13 0.16 0.17 0.17 0.19 0.18 0.16 0.19 0.26 0.32 0.35 0.42 0.53 0.69 0.95 1.52 2.36
0.05 0.07 0.11 0.16 0.20 0.24 0.27 0.36 0.42 0.44 0.47 0.46 0.44 0.43 0.44 0.45 0.47 0.45 0.45 0.41 0.36 0.34 0.39 0.25 0.07 0.06 0.13 0.20 0.26 0.25 0.22 0.18 0.15 0.16 0.20 0.27 0.32 0.37 0.46 0.58 0.73 1.00 1.57
0.09 0.14 0.21 0.29 0.34 0.36 0.37 0.38 0.49 0.63 0.70 0.72 0.72 0.71 0.68 0.65 0.66 0.64 0.62 0.54 0.43 0.34 0.33 0.31 0.16 0.09 0.13 0.23 0.33 0.34 0.29 0.22 0.16 0.17 0.19 0.22 0.27 0.31 0.37 0.45 0.57 0.72 0.98
0.19 0.27 0.34 0.45 0.52 0.60 0.73 0.73 0.72 0.67 0.68 0.77 0.82 0.85 0.91 0.93 0.93 0.89 0.86 0.70 0.55 0.45 0.38 0.36 0.27 0.18 0.15 0.23 0.40 0.45 0.40 0.31 0.22 0.17 0.19 0.20 0.25 0.30 0.31 0.32 0.35 0.49 0.73
0.26 0.34 0.39 0.40 0.43 0.65 1.11 1.27 0.98 0.63 0.52 0.54 0.58 0.61 0.72 0.88 1.01 1.07 1.10 0.96 0.80 0.71 0.58 0.49 0.38 0.30 0.24 0.29 0.44 0.51 0.54 0.48 0.41 0.31 0.24 0.19 0.20 0.22 0.23 0.27 0.33 0.42 0.57
0.19 0.29 0.35 0.33 0.32 0.53 0.98 1.13 0.75 0.43 0.37 0.36 0.37 0.37 0.42 0.58 0.69 0.79 0.91 0.94 0.98 1.02 0.91 0.72 0.55 0.42 0.33 0.34 0.42 0.56 0.60 0.63 0.60 0.48 0.40 0.33 0.28 0.26 0.24 0.23 0.28 0.34 0.45
0.12 0.17 0.19 0.17 0.20 0.39 0.76 0.87 0.54 0.26 0.20 0.19 0.20 0.21 0.22 0.31 0.43 0.48 0.56 0.65 0.78 0.91 0.99 0.95 0.84 0.65 0.48 0.41 0.46 0.55 0.61 0.68 0.66 0.62 0.61 0.59 0.52 0.41 0.34 0.33 0.36 0.35 0.39
0.10 0.12 0.11 0.07 0.07 0.20 0.57 0.75 0.46 0.19 0.12 0.12 0.15 0.13 0.12 0.17 0.32 0.41 0.51 0.51 0.53 0.68 0.89 1.02 1.09 0.94 0.71 0.58 0.65 0.73 0.79 0.75 0.71 0.80 0.84 0.82 0.71 0.58 0.53 0.49 0.46 0.39 0.36
0.08 0.10 0.09 0.05 0.03 0.08 0.40 0.73 0.54 0.20 0.12 0.11 0.12 0.13 0.11 0.11 0.25 0.36 0.37 0.33 0.31 0.44 0.57 0.76 0.87 0.86 0.76 0.72 0.75 0.85 0.86 0.85 0.91 1.00 1.04 1.02 0.94 0.76 0.71 0.71 0.65 0.52 0.42
0.04 0.05 0.06 0.04 0.02 0.03 0.22 0.64 0.69 0.27 0.15 0.10 0.09 0.10 0.16 0.19 0.25 0.26 0.24 0.24 0.28 0.32 0.33 0.37 0.42 0.48 0.51 0.51 0.61 0.78 0.90 0.92 0.98 1.17 1.19 1.10 1.14 1.03 1.00 0.93 0.76 0.55 0.44

GEFSMA_prec_meanprecacc_084.txt.gz
Total_Precipitation_Accumulation
0.11 0.11 0.11 0.12 0.12 0.13 0.14 0.16 0.17 0.16 0.16 0.16 0.17 0.18 0.21 0.23 0.21 0.17 0.14 0.12 0.08 0.08 0.14 0.29 0.54 0.79 0.99 1.10 1.11 0.97 0.89 0.76 0.59 0.50 0.47 0.54 0.57 0.56 0.59 0.69 0.65 0.54 0.50
0.03 0.03 0.03 0.02 0.02 0.02 0.02 0.03 0.04 0.05 0.06 0.08 0.09 0.11 0.13 0.16 0.18 0.19 0.19 0.21 0.16 0.13 0.14 0.20 0.33 0.56 0.86 1.09 1.19 1.16 1.03 0.94 0.77 0.60 0.52 0.51 0.57 0.56 0.56 0.61 0.69 0.65 0.53
0.01 0.01 0.01 0.01 0.00 0.00 0.00 0.00 0.00 0.01 0.01 0.02 0.03 0.05 0.07 0.08 0.12 0.15 0.18 0.22 0.23 0.20 0.17 0.20 0.27 0.42 0.71 1.01 1.19 1.32 1.23 1.09 0.98 0.84 0.64 0.52 0.54 0.58 0.56 0.58 0.64 0.71 0.67
0.00 0.00 0.00 0.00 0.00 0.00 0.01 0.01 0.01 0.00 0.01 0.01 0.02 0.03 0.05 0.06 0.06 0.09 0.14 0.16 0.19 0.21 0.20 0.20 0.28 0.42 0.59 0.85 1.12 1.38 1.48 1.32 1.22 1.16 0.97 0.73 0.57 0.58 0.59 0.57 0.62 0.70 0.77
0.00 0.00 0.00 0.00 0.00 0.01 0.01 0.02 0.02 0.01 0.01 0.01 0.02 0.02 0.02 0.04 0.05 0.08 0.11 0.14 0.17 0.18 0.20 0.21 0.25 0.34 0.47 0.70 1.04 1.38 1.72 1.75 1.57 1.44 1.28 1.08 0.84 0.66 0.64 0.60 0.62 0.70 0.78
0.00 0.00 0.00 0.00 0.00 0.00 0.00 0.01 0.01 0.01 0.02 0.01 0.02 0.01 0.00 0.01 0.02 0.05 0.07 0.12 0.16 0.17 0.19 0.24 0.27 0.25 0.27 0.39 0.63 1.01 1.38 1.72 1.80 1.70 1.59 1.40 1.18 0.94 0.78 0.70 0.67 0.73 0.83
0.00 0.00 0.00 0.00 0.00 0.01 0.01 0.01 0.02 0.02 0.02 0.02 0.02 0.01 0.00 0.00 0.01 0.02 0.07 0.12 0.17 0.23 0.29 0.34 0.40 0.38 0.30 0.29 0.32 0.46 0.80 1.29 1.66 1.83 1.82 1.76 1.52 1.25 1.02 0.85 0.79 0.81 0.87
0.00 0.00 0.00 0.00 0.00 0.00 0.00 0.01 0.02 0.04 0.04 0.03 0.06 0.11 0.05 0.01 0.00 0.01 0.04 0.09 0.17 0.27 0.39 0.44 0.49 0.50 0.46 0.36 0.25 0.25 0.37 0.73 1.27 1.74 1.89 1.90 1.93 1.70 1.32 1.07 0.93 0.92 0.96
0.00 0.00 0.00 0.00 0.00 0.01 0.01 0.01 0.02 0.04 0.06 0.04 0.07 0.24 0.31 0.16 0.05 0.00 0.01 0.04 0.08 0.12 0.20 0.29 0.36 0.41 0.47 0.48 0.39 0.30 0.28 0.43 0.79 1.40 1.90 2.00 2.02 2.09 1.84 1.39 1.11 1.00 1.01
0.00 0.00 0.00 0.00 0.00 0.01 0.01 0.02 0.03 0.05 0.10 0.12 0.08 0.12 0.22 0.27 0.29 0.13 0.01 0.02 0.02 0.04 0.06 0.10 0.16 0.23 0.34 0.44 0.48 0.43 0.36 0.37 0.57 0.94 1.57 2.10 2.14 2.21 2.28 1.92 1.46 1.18 1.08
0.00 0.00 0.00 0.00 0.00 0.01 0.02 0.03 0.04 0.06 0.12 0.17 0.17 0.15 0.14 0.13 0.19 0.28 0.12 0.02 0.03 0.03 0.03 0.05 0.07 0.10 0.16 0.27 0.36 0.43 0.45 0.40 0.50 0.71 1.06 1.71 2.28 2.43 2.51 2.35 1.87 1.42 1.16
0.00 0.00 0.00 0.00 0.01 0.01 0.03 0.04 0.06 0.09 0.11 0.15 0.18 0.20 0.24 0.26 0.20 0.26 0.22 0.07 0.03 0.03 0.04 0.05 0.06 0.07 0.10 0.16 0.23 0.35 0.43 0.44 0.45 0.56 0.69 1.06 1.80 2.45 2.65 2.53 2.19 1.76 1.36
0.01 0.00 0.01 0.01 0.01 0.03 0.04 0.07 0.10 0.11 0.12 0.16 0.19 0.21 0.22 0.22 0.21 0.26 0.29 0.17 0.07 0.02 0.03 0.05 0.06 0.09 0.11 0.14 0.18 0.25 0.32 0.39 0.45 0.50 0.51 0.57 0.94 1.77 2.54 2.76 2.48 2.09 1.72
0.01 0.01 0.01 0.01 0.02 0.04 0.07 0.10 0.13 0.14 0.16 0.19 0.19 0.21 0.22 0.19 0.21 0.26 0.32 0.36 0.28 0.09 0.03 0.04 0.05 0.08 0.11 0.13 0.15 0.19 0.20 0.26 0.35 0.41 0.44 0.45 0.53 0.88 1.65 2.56 3.08 2.74 2.19
0.01 0.01 0.01 0.02 0.04 0.07 0.10 0.12 0.15 0.17 0.20 0.22 0.23 0.24 0.26 0.24 0.25 0.26 0.28 0.38 0.53 0.37 0.10 0.03 0.05 0.06 0.09 0.13 0.17 0.17 0.17 0.20 0.27 0.34 0.37 0.40 0.45 0.54 0.85 1.51 2.46 3.13 2.99
0.01 0.01 0.03 0.05 0.09 0.14 0.17 0.18 0.19 0.20 0.24 0.26 0.28 0.30 0.31 0.31 0.31 0.30 0.32 0.32 0.40 0.48 0.29 0.05 0.06 0.07 0.09 0.12 0.17 0.18 0.19 0.20 0.22 0.27 0.32 0.34 0.38 0.46 0.60 0.90 1.48 2.39 2.97
0.02 0.03 0.06 0.09 0.14 0.20 0.24 0.27 0.28 0.30 0.31 0.28 0.30 0.34 0.35 0.35 0.35 0.33 0.34 0.35 0.34 0.40 0.39 0.10 0.04 0.07 0.13 0.16 0.18 0.18 0.19 0.18 0.16 0.19 0.26 0.32 0.36 0.42 0.53 0.70 0.95 1.52 2.37
0.05 0.07 0.11 0.16 0.20 0.24 0.27 0.36 0.42 0.44 0.47 0.46 0.44 0.43 0.44 0.45 0.47 0.45 0.45 0.41 0.36 0.34 0.39 0.25 0.07 0.06 0.13 0.20 0.26 0.25 0.22 0.18 0.15 0.16 0.20 0.27 0.32 0.37 0.47 0.58 0.73 1.00 1.57
0.09 0.14 0.21 0.29 0.34 0.36 0.37 0.38 0.49 0.63 0.70 0.72 0.72 0.71 0.68 0.65 0.66 0.64 0.62 0.55 0.44 0.35 0.34 0.32 0.17 0.09 0.13 0.23 0.33 0.34 0.29 0.22 0.16 0.17 0.19 0.23 0.28 0.32 0.37 0.46 0.58 0.73 0.99
0.19 0.27 0.34 0.45 0.52 0.60 0.73 0.73 0.72 0.67 0.68 0.77 0.82 0.85 0.91 0.93 0.93 0.89 0.87 0.71 0.56 0.47 0.40 0.38 0.28 0.18 0.16 0.23 0.40 0.45 0.41 0.32 0.22 0.17 0.19 0.20 0.25 0.30 0.31 0.32 0.36 0.49 0.73
0.26 0.34 0.39 0.40 0.43 0.65 1.11 1.27 0.99 0.63 0.52 0.54 0.58 0.61 0.72 0.89 1.01 1.08 1.11 0.97 0.81 0.74 0.61 0.51 0.40 0.30 0.24 0.30 0.45 0.51 0.55 0.49 0.41 0.31 0.24 0.20 0.20 0.22 0.24 0.27 0.34 0.42 0.57
0.19 0.29 0.35 0.33 0.32 0.53 0.98 1.13 0.75 0.44 0.37 0.36 0.37 0.38 0.42 0.58 0.69 0.79 0.92 0.96 1.00 1.04 0.94 0.75 0.57 0.44 0.34 0.34 0.43 0.58 0.62 0.65 0.62 0.48 0.40 0.33 0.28 0.26 0.24 0.23 0.28 0.34 0.45
0.12 0.17 0.19 0.17 0.20 0.39 0.76 0.87 0.54 0.27 0.20 0.19 0.20 0.21 0.22 0.31 0.43 0.48 0.56 0.66 0.80 0.93 1.02 0.97 0.87 0.66 0.48 0.41 0.47 0.57 0.64 0.69 0.66 0.62 0.61 0.60 0.52 0.41 0.34 0.33 0.36 0.35 0.39
0.10 0.12 0.11 0.07 0.07 0.20 0.57 0.75 0.47 0.20 0.13 0.13 0.15 0.14 0.12 0.17 0.32 0.42 0.52 0.52 0.54 0.69 0.92 1.06 1.14 0.97 0.72 0.59 0.66 0.74 0.80 0.77 0.73 0.80 0.84 0.83 0.71 0.58 0.53 0.49 0.46 0.39 0.37
0.08 0.10 0.09 0.05 0.03 0.08 0.40 0.73 0.54 0.20 0.12 0.11 0.13 0.14 0.12 0.11 0.26 0.37 0.39 0.35 0.32 0.44 0.58 0.78 0.93 0.91 0.80 0.74 0.78 0.91 0.93 0.93 0.95 1.00 1.04 1.04 0.95 0.76 0.71 0.71 0.65 0.52 0.42
0.04 0.05 0.06 0.04 0.02 0.03 0.22 0.65 0.69 0.28 0.15 0.10 0.09 0.10 0.16 0.19 0.26 0.27 0.26 0.27 0.30 0.33 0.33 0.38 0.44 0.53 0.58 0.59 0.70 0.88 0.97 0.98 1.02 1.19 1.19 1.10 1.15 1.03 1.01 0.93 0.76 0.55 0.44

GEFSMA_prec_meanprecacc_090.txt.gz
Total_Precipitation_Accumulation
0.11 0.11 0.11 0.12 0.12 0.13 0.14 0.16 0.17 0.16 0.16 0.16 0.17 0.18 0.21 0.23 0.21 0.17 0.14 0.12 0.08 0.08 0.14 0.29 0.54 0.79 0.99 1.10 1.11 0.97 0.89 0.76 0.59 0.50 0.47 0.54 0.57 0.56 0.59 0.69 0.65 0.54 0.50
0.03 0.03 0.03 0.02 0.02 0.02 0.02 0.03 0.04 0.05 0.06 0.08 0.09 0.11 0.13 0.16 0.18 0.19 0.19 0.21 0.16 0.13 0.14 0.20 0.33 0.56 0.86 1.09 1.19 1.17 1.03 0.94 0.77 0.60 0.52 0.51 0.57 0.57 0.56 0.61 0.69 0.65 0.53
0.01 0.01 0.01 0.01 0.00 0.00 0.00 0.00 0.00 0.01 0.01 0.02 0.03 0.05 0.07 0.08 0.12 0.15 0.18 0.22 0.23 0.20 0.17 0.20 0.27 0.42 0.71 1.01 1.19 1.32 1.23 1.09 0.98 0.84 0.64 0.53 0.54 0.59 0.56 0.58 0.65 0.71 0.68
0.00 0.00 0.00 0.00 0.00 0.00 0.01 0.01 0.01 0.00 0.01 0.01 0.02 0.03 0.05 0.06 0.06 0.09 0.14 0.16 0.19 0.21 0.20 0.20 0.28 0.42 0.59 0.85 1.12 1.38 1.49 1.33 1.23 1.16 0.97 0.73 0.58 0.58 0.60 0.58 0.63 0.71 0.77
0.00 0.00 0.00 0.00 0.00 0.01 0.01 0.02 0.02 0.01 0.01 0.01 0.02 0.02 0.02 0.04 0.05 0.08 0.11 0.14 0.17 0.18 0.20 0.21 0.25 0.34 0.47 0.70 1.04 1.38 1.72 1.75 1.57 1.45 1.28 1.09 0.85 0.66 0.64 0.61 0.63 0.70 0.78
0.00 0.00 0.00 0.00 0.00 0.00 0.00 0.01 0.01 0.01 0.02 0.01 0.02 0.01 0.00 0.01 0.02 0.05 0.07 0.12 0.16 0.17 0.19 0.24 0.27 0.25 0.27 0.39 0.63 1.01 1.38 1.72 1.80 1.70 1.60 1.40 1.18 0.94 0.78 0.70 0.67 0.74 0.84
0.00 0.00 0.00 0.00 0.00 0.01 0.01 0.01 0.02 0.02 0.02 0.02 0.02 0.01 0.00 0.00 0.01 0.02 0.07 0.12 0.17 0.23 0.29 0.34 0.40 0.38 0.30 0.29 0.32 0.46 0.80 1.29 1.66 1.83 1.82 1.76 1.53 1.25 1.02 0.86 0.80 0.82 0.88
0.00 0.00 0.00 0.00 0.00 0.00 0.00 0.01 0.02 0.04 0.04 0.03 0.06 0.11 0.05 0.01 0.00 0.01 0.04 0.09 0.17 0.27 0.39 0.44 0.49 0.50 0.46 0.36 0.25 0.25 0.37 0.73 1.27 1.75 1.89 1.90 1.93 1.70 1.33 1.08 0.93 0.93 0.97
0.00 0.00 0.00 0.00 0.00 0.01 0.01 0.01 0.02 0.04 0.06 0.04 0.07 0.24 0.31 0.16 0.05 0.00 0.01 0.04 0.08 0.12 0.20 0.29 0.36 0.41 0.47 0.48 0.39 0.30 0.28 0.43 0.79 1.40 1.90 2.00 2.03 2.10 1.84 1.40 1.12 1.01 1.03
0.00 0.00 0.00 0.00 0.00 0.01 0.01 0.02 0.03 0.05 0.10 0.12 0.08 0.12 0.22 0.27 0.29 0.13 0.01 0.02 0.02 0.04 0.06 0.10 0.16 0.23 0.34 0.44 0.48 0.43 0.36 0.37 0.57 0.94 1.57 2.10 2.15 2.21 2.29 1.93 1.47 1.20 1.10
0.00 0.00 0.00 0.00 0.00 0.01 0.02 0.03 0.04 0.06 0.12 0.17 0.17 0.15 0.14 0.13 0.19 0.28 0.12 0.02 0.03 0.03 0.03 0.05 0.07 0.10 0.16 0.27 0.36 0.43 0.45 0.40 0.50 0.71 1.06 1.71 2.29 2.44 2.52 2.37 1.89 1.44 1.18
0.00 0.00 0.00 0.00 0.01 0.01 0.03 0.04 0.06 0.09 0.11 0.15 0.18 0.20 0.24 0.26 0.20 0.26 0.22 0.07 0.03 0.03 0.04 0.05 0.06 0.07 0.10 0.16 0.23 0.35 0.43 0.44 0.45 0.56 0.69 1.06 1.80 2.45 2.65 2.54 2.20 1.78 1.38
0.01 0.00 0.01 0.01 0.01 0.03 0.04 0.07 0.10 0.11 0.12 0.16 0.19 0.21 0.22 0.22 0.21 0.26 0.29 0.17 0.07 0.02 0.03 0.05 0.06 0.09 0.11 0.14 0.18 0.25 0.32 0.39 0.45 0.50 0.51 0.57 0.94 1.77 2.54 2.76 2.49 2.10 1.74
0.01 0.01 0.01 0.01 0.02 0.04 0.07 0.10 0.13 0.14 0.16 0.19 0.19 0.21 0.22 0.19 0.21 0.26 0.32 0.36 0.28 0.09 0.03 0.04 0.05 0.08 0.11 0.13 0.15 0.19 0.20 0.26 0.35 0.41 0.44 0.45 0.53 0.88 1.65 2.56 3.08 2.74 2.20
0.01 0.01 0.01 0.02 0.04 0.07 0.10 0.12 0.15 0.17 0.20 0.22 0.23 0.24 0.26 0.24 0.25 0.26 0.28 0.38 0.53 0.37 0.10 0.03 0.05 0.06 0.09 0.13 0.17 0.17 0.17 0.20 0.27 0.34 0.37 0.40 0.45 0.54 0.85 1.51 2.47 3.13 3.00
0.01 0.01 0.03 0.05 0.09 0.14 0.17 0.18 0.19 0.20 0.24 0.26 0.28 0.30 0.31 0.31 0.31 0.30 0.32 0.32 0.40 0.48 0.29 0.05 0.06 0.07 0.09 0.12 0.17 0.18 0.19 0.20 0.22 0.27 0.32 0.34 0.38 0.46 0.61 0.90 1.49 2.39 2.97
0.02 0.03 0.06 0.09 0.14 0.20 0.24 0.27 0.28 0.30 0.31 0.28 0.30 0.34 0.35 0.35 0.35 0.33 0.34 0.35 0.34 0.40 0.39 0.10 0.04 0.07 0.13 0.16 0.18 0.18 0.19 0.18 0.16 0.20 0.26 0.32 0.36 0.42 0.53 0.70 0.96 1.53 2.38
0.05 0.07 0.11 0.16 0.20 0.24 0.27 0.36 0.42 0.44 0.47 0.46 0.44 0.43 0.44 0.45 0.47 0.45 0.45 0.41 0.36 0.34 0.40 0.25 0.07 0.06 0.13 0.20 0.26 0.26 0.22 0.19 0.16 0.16 0.21 0.27 0.33 0.38 0.48 0.59 0.75 1.02 1.59
0.09 0.14 0.21 0.29 0.34 0.36 0.37 0.38 0.49 0.63 0.70 0.72 0.72 0.71 0.68 0.65 0.66 0.64 0.62 0.55 0.44 0.35 0.35 0.33 0.17 0.09 0.13 0.23 0.33 0.35 0.30 0.23 0.17 0.18 0.21 0.24 0.29 0.33 0.38 0.48 0.60 0.75 1.01
0.19 0.27 0.34 0.45 0.52 0.60 0.73 0.73 0.72 0.67 0.68 0.77 0.82 0.86 0.91 0.93 0.93 0.89 0.87 0.72 0.56 0.47 0.40 0.39 0.28 0.18 0.16 0.23 0.41 0.46 0.41 0.33 0.24 0.20 0.23 0.24 0.28 0.33 0.34 0.36 0.39 0.52 0.77
0.26 0.34 0.39 0.40 0.43 0.65 1.11 1.27 0.99 0.63 0.53 0.54 0.58 0.61 0.73 0.89 1.01 1.09 1.12 0.97 0.82 0.75 0.63 0.53 0.42 0.31 0.25 0.31 0.46 0.52 0.56 0.51 0.43 0.34 0.27 0.22 0.23 0.25 0.26 0.30 0.37 0.46 0.62
0.19 0.29 0.35 0.33 0.32 0.53 0.98 1.13 0.75 0.44 0.37 0.36 0.37 0.38 0.43 0.58 0.70 0.81 0.95 1.00 1.04 1.09 0.99 0.80 0.61 0.46 0.35 0.35 0.43 0.60 0.65 0.69 0.65 0.50 0.42 0.35 0.31 0.28 0.26 0.24 0.29 0.36 0.49
0.12 0.17 0.19 0.17 0.20 0.39 0.76 0.87 0.55 0.27 0.21 0.19 0.21 0.22 0.23 0.31 0.44 0.49 0.57 0.68 0.82 0.97 1.08 1.05 0.95 0.71 0.51 0.43 0.50 0.61 0.67 0.71 0.67 0.63 0.63 0.61 0.53 0.42 0.35 0.33 0.37 0.36 0.41
0.10 0.12 0.11 0.07 0.07 0.20 0.57 0.75 0.47 0.20 0.13 0.13 0.16 0.14 0.13 0.18 0.32 0.43 0.53 0.53 0.54 0.69 0.93 1.10 1.19 1.02 0.76 0.63 0.70 0.79 0.85 0.82 0.77 0.82 0.86 0.85 0.72 0.58 0.53 0.49 0.46 0.40 0.38
0.08 0.10 0.09 0.05 0.03 0.08 0.40 0.73 0.55 0.21 0.13 0.11 0.13 0.14 0.12 0.11 0.27 0.39 0.41 0.37 0.34 0.45 0.58 0.80 0.96 0.96 0.87 0.81 0.85 1.01 1.04 1.04 1.02 1.02 1.06 1.06 0.95 0.76 0.71 0.72 0.65 0.52 0.42
0.04 0.05 0.06 0.04 0.02 0.03 0.22 0.65 0.70 0.28 0.16 0.11 0.10 0.11 0.17 0.21 0.28 0.31 0.30 0.31 0.33 0.35 0.34 0.39 0.46 0.56 0.62 0.66 0.81 1.01 1.07 1.07 1.08 1.22 1.21 1.12 1.16 1.05 1.03 0.94 0.77 0.55 0.45